Wetterdaten: Montag, 27.05.2013
Datum Zeit Temp. Aussen +5cm Feuchte Auss Luftdruck Regen Sonnenschein Regendauer UV Solar Windben
27.05.2013 00:00 9,0 C 7,9 C 82 % 1010,6 hPa 0,0 l/m 0 min 0 min 0,0 UV-I 0 W/m 2,6 km/h (1 Bft)
27.05.2013 00:02 9,0 C 7,9 C 82 % 1010,5 hPa 0,0 l/m 0 min 0 min 0,0 UV-I 0 W/m 0,0 km/h (0 Bft)
27.05.2013 00:06 9,0 C 7,9 C 83 % 1010,5 hPa 0,0 l/m 0 min 0 min 0,0 UV-I 0 W/m 5,1 km/h (1 Bft)
27.05.2013 00:08 8,9 C 7,9 C 83 % 1010,5 hPa 0,0 l/m 0 min 0 min 0,0 UV-I 0 W/m 5,1 km/h (1 Bft)
27.05.2013 00:10 8,9 C 7,9 C 83 % 1010,4 hPa 0,0 l/m 0 min 0 min 0,0 UV-I 0 W/m 12,9 km/h (3 Bft)
27.05.2013 00:12 8,9 C 7,9 C 83 % 1010,4 hPa 0,0 l/m 0 min 0 min 0,0 UV-I 0 W/m 0,0 km/h (0 Bft)
27.05.2013 00:14 8,9 C 7,9 C 83 % 1010,5 hPa 0,0 l/m 0 min 0 min 0,0 UV-I 0 W/m 2,6 km/h (1 Bft)
27.05.2013 00:16 8,9 C 7,9 C 83 % 1010,4 hPa 0,0 l/m 0 min 0 min 0,0 UV-I 0 W/m 7,7 km/h (2 Bft)
27.05.2013 00:18 8,9 C 7,9 C 83 % 1010,4 hPa 0,0 l/m 0 min 0 min 0,0 UV-I 0 W/m 5,1 km/h (1 Bft)
27.05.2013 00:20 8,9 C 7,9 C 83 % 1010,5 hPa 0,0 l/m 0 min 0 min 0,0 UV-I 0 W/m 0,0 km/h (0 Bft)
27.05.2013 00:22 8,9 C 7,9 C 83 % 1010,5 hPa 0,0 l/m 0 min 0 min 0,0 UV-I 0 W/m 0,0 km/h (0 Bft)
27.05.2013 00:24 8,9 C 7,9 C 83 % 1010,4 hPa 0,0 l/m 0 min 0 min 0,0 UV-I 0 W/m 2,6 km/h (1 Bft)
27.05.2013 00:26 8,8 C 7,9 C 83 % 1010,4 hPa 0,0 l/m 0 min 0 min 0,0 UV-I 0 W/m 15,4 km/h (3 Bft)
27.05.2013 00:28 8,8 C 7,3 C 83 % 1010,4 hPa 0,0 l/m 0 min 0 min 0,0 UV-I 0 W/m 7,7 km/h (2 Bft)
27.05.2013 00:30 8,8 C 7,3 C 84 % 1010,4 hPa 0,0 l/m 0 min 0 min 0,0 UV-I 0 W/m 7,7 km/h (2 Bft)
27.05.2013 00:32 8,8 C 7,3 C 84 % 1010,5 hPa 0,0 l/m 0 min 0 min 0,0 UV-I 0 W/m 7,7 km/h (2 Bft)
27.05.2013 00:34 8,8 C 7,3 C 84 % 1010,4 hPa 0,0 l/m 0 min 0 min 0,0 UV-I 0 W/m 28,3 km/h (4 Bft)
27.05.2013 00:36 8,8 C 7,3 C 84 % 1010,4 hPa 0,0 l/m 0 min 0 min 0,0 UV-I 0 W/m 5,1 km/h (1 Bft)
27.05.2013 00:38 8,8 C 7,3 C 84 % 1010,5 hPa 0,0 l/m 0 min 0 min 0,0 UV-I 0 W/m 15,4 km/h (3 Bft)
27.05.2013 00:40 8,8 C 7,3 C 85 % 1010,5 hPa 0,0 l/m 0 min 0 min 0,0 UV-I 0 W/m 10,3 km/h (2 Bft)
27.05.2013 00:42 8,8 C 7,3 C 85 % 1010,5 hPa 0,0 l/m 0 min 0 min 0,0 UV-I 0 W/m 10,3 km/h (2 Bft)
27.05.2013 00:44 8,8 C 7,3 C 85 % 1010,5 hPa 0,0 l/m 0 min 0 min 0,0 UV-I 0 W/m 5,1 km/h (1 Bft)
27.05.2013 00:46 8,8 C 7,3 C 85 % 1010,5 hPa 0,0 l/m 0 min 0 min 0,0 UV-I 0 W/m 2,6 km/h (1 Bft)
27.05.2013 00:48 8,8 C 7,3 C 85 % 1010,5 hPa 0,0 l/m 0 min 0 min 0,0 UV-I 0 W/m 10,3 km/h (2 Bft)
27.05.2013 00:50 8,8 C 7,3 C 85 % 1010,6 hPa 0,0 l/m 0 min 0 min 0,0 UV-I 0 W/m 2,6 km/h (1 Bft)
27.05.2013 00:52 8,7 C 7,3 C 85 % 1010,6 hPa 0,0 l/m 0 min 0 min 0,0 UV-I 0 W/m 5,1 km/h (1 Bft)
27.05.2013 00:54 8,7 C 7,3 C 85 % 1010,6 hPa 0,0 l/m 0 min 0 min 0,0 UV-I 0 W/m 12,9 km/h (3 Bft)
27.05.2013 00:56 8,7 C 7,3 C 85 % 1010,6 hPa 0,0 l/m 0 min 0 min 0,0 UV-I 0 W/m 5,1 km/h (1 Bft)
27.05.2013 00:58 8,7 C 7,3 C 85 % 1010,5 hPa 0,0 l/m 0 min 0 min 0,0 UV-I 0 W/m 5,1 km/h (1 Bft)
27.05.2013 01:00 8,7 C 7,3 C 86 % 1010,4 hPa 0,0 l/m 0 min 0 min 0,0 UV-I 0 W/m 0,0 km/h (0 Bft)
27.05.2013 01:02 8,7 C 7,3 C 86 % 1010,5 hPa 0,0 l/m 0 min 0 min 0,0 UV-I 0 W/m 5,1 km/h (1 Bft)
27.05.2013 01:04 8,7 C 7,3 C 86 % 1010,4 hPa 0,0 l/m 0 min 0 min 0,0 UV-I 0 W/m 10,3 km/h (2 Bft)
27.05.2013 01:06 8,7 C 7,3 C 86 % 1010,4 hPa 0,0 l/m 0 min 0 min 0,0 UV-I 0 W/m 10,3 km/h (2 Bft)
27.05.2013 01:08 8,7 C 7,3 C 86 % 1010,5 hPa 0,0 l/m 0 min 0 min 0,0 UV-I 0 W/m 2,6 km/h (1 Bft)
27.05.2013 01:10 8,7 C 7,3 C 86 % 1010,5 hPa 0,0 l/m 0 min 0 min 0,0 UV-I 0 W/m 0,0 km/h (0 Bft)
27.05.2013 01:12 8,7 C 7,3 C 86 % 1010,4 hPa 0,0 l/m 0 min 0 min 0,0 UV-I 0 W/m 2,6 km/h (1 Bft)
27.05.2013 01:14 8,7 C 7,3 C 87 % 1010,4 hPa 0,0 l/m 0 min 0 min 0,0 UV-I 0 W/m 7,7 km/h (2 Bft)
27.05.2013 01:16 8,6 C 7,3 C 87 % 1010,4 hPa 0,0 l/m 0 min 0 min 0,0 UV-I 0 W/m 7,7 km/h (2 Bft)
27.05.2013 01:18 8,6 C 7,3 C 87 % 1010,4 hPa 0,0 l/m 0 min 0 min 0,0 UV-I 0 W/m 7,7 km/h (2 Bft)
27.05.2013 01:20 8,6 C 7,3 C 87 % 1010,4 hPa 0,0 l/m 0 min 0 min 0,0 UV-I 0 W/m 5,1 km/h (1 Bft)
27.05.2013 01:22 8,6 C 7,3 C 87 % 1010,5 hPa 0,0 l/m 0 min 0 min 0,0 UV-I 0 W/m 0,0 km/h (0 Bft)
27.05.2013 01:24 8,6 C 7,3 C 88 % 1010,4 hPa 0,0 l/m 0 min 0 min 0,0 UV-I 0 W/m 2,6 km/h (1 Bft)
27.05.2013 01:26 8,6 C 7,3 C 88 % 1010,5 hPa 0,0 l/m 0 min 0 min 0,0 UV-I 0 W/m 0,0 km/h (0 Bft)
27.05.2013 01:28 8,6 C 7,3 C 88 % 1010,4 hPa 0,0 l/m 0 min 0 min 0,0 UV-I 0 W/m 7,7 km/h (2 Bft)
27.05.2013 01:30 8,6 C 7,3 C 88 % 1010,4 hPa 0,0 l/m 0 min 0 min 0,0 UV-I 0 W/m 7,7 km/h (2 Bft)
27.05.2013 01:32 8,6 C 7,3 C 88 % 1010,4 hPa 0,0 l/m 0 min 0 min 0,0 UV-I 0 W/m 7,7 km/h (2 Bft)
27.05.2013 01:34 8,6 C 7,3 C 88 % 1010,4 hPa 0,0 l/m 0 min 0 min 0,0 UV-I 0 W/m 5,1 km/h (1 Bft)
27.05.2013 01:36 8,6 C 7,3 C 88 % 1010,4 hPa 0,0 l/m 0 min 0 min 0,0 UV-I 0 W/m 12,9 km/h (3 Bft)
27.05.2013 01:38 8,6 C 7,3 C 88 % 1010,3 hPa 0,0 l/m 0 min 0 min 0,0 UV-I 0 W/m 15,4 km/h (3 Bft)
27.05.2013 01:40 8,6 C 7,3 C 88 % 1010,3 hPa 0,0 l/m 0 min 0 min 0,0 UV-I 0 W/m 5,1 km/h (1 Bft)
27.05.2013 01:42 8,6 C 7,3 C 89 % 1010,3 hPa 0,0 l/m 0 min 0 min 0,0 UV-I 0 W/m 2,6 km/h (1 Bft)
27.05.2013 01:44 8,5 C 7,3 C 89 % 1010,3 hPa 0,0 l/m 0 min 0 min 0,0 UV-I 0 W/m 5,1 km/h (1 Bft)
27.05.2013 01:46 8,5 C 7,3 C 89 % 1010,2 hPa 0,0 l/m 0 min 0 min 0,0 UV-I 0 W/m 5,1 km/h (1 Bft)
27.05.2013 01:48 8,5 C 7,3 C 89 % 1010,2 hPa 0,0 l/m 0 min 0 min 0,0 UV-I 0 W/m 23,2 km/h (4 Bft)
27.05.2013 01:50 8,5 C 7,3 C 89 % 1010,2 hPa 0,0 l/m 0 min 0 min 0,0 UV-I 0 W/m 7,7 km/h (2 Bft)
27.05.2013 01:52 8,5 C 7,3 C 89 % 1010,2 hPa 0,0 l/m 0 min 0 min 0,0 UV-I 0 W/m 7,7 km/h (2 Bft)
27.05.2013 01:54 8,4 C 7,3 C 89 % 1010,2 hPa 0,0 l/m 0 min 0 min 0,0 UV-I 0 W/m 7,7 km/h (2 Bft)
27.05.2013 01:56 8,4 C 7,3 C 89 % 1010,2 hPa 0,0 l/m 0 min 0 min 0,0 UV-I 0 W/m 12,9 km/h (3 Bft)
27.05.2013 01:58 8,4 C 7,3 C 89 % 1010,3 hPa 0,0 l/m 0 min 0 min 0,0 UV-I 0 W/m 10,3 km/h (2 Bft)
27.05.2013 02:00 8,4 C 7,3 C 89 % 1010,3 hPa 0,0 l/m 0 min 0 min 0,0 UV-I 0 W/m 7,7 km/h (2 Bft)
27.05.2013 02:02 8,4 C 7,3 C 89 % 1010,3 hPa 0,0 l/m 0 min 0 min 0,0 UV-I 0 W/m 10,3 km/h (2 Bft)
27.05.2013 02:04 8,4 C 7,3 C 89 % 1010,2 hPa 0,0 l/m 0 min 0 min 0,0 UV-I 0 W/m 0,0 km/h (0 Bft)
27.05.2013 02:06 8,4 C 7,3 C 89 % 1010,3 hPa 0,0 l/m 0 min 0 min 0,0 UV-I 0 W/m 0,0 km/h (0 Bft)
27.05.2013 02:08 8,4 C 7,3 C 89 % 1010,3 hPa 0,0 l/m 0 min 0 min 0,0 UV-I 0 W/m 10,3 km/h (2 Bft)
27.05.2013 02:10 8,4 C 7,3 C 89 % 1010,2 hPa 0,0 l/m 0 min 0 min 0,0 UV-I 0 W/m 5,1 km/h (1 Bft)
27.05.2013 02:12 8,4 C 7,3 C 90 % 1010,2 hPa 0,0 l/m 0 min 0 min 0,0 UV-I 0 W/m 2,6 km/h (1 Bft)
27.05.2013 02:14 8,4 C 7,3 C 90 % 1010,2 hPa 0,0 l/m 0 min 0 min 0,0 UV-I 0 W/m 0,0 km/h (0 Bft)
27.05.2013 02:16 8,4 C 7,3 C 90 % 1010,2 hPa 0,0 l/m 0 min 0 min 0,0 UV-I 0 W/m 0,0 km/h (0 Bft)
27.05.2013 02:18 8,4 C 7,3 C 90 % 1010,3 hPa 0,0 l/m 0 min 0 min 0,0 UV-I 0 W/m 5,1 km/h (1 Bft)
27.05.2013 02:20 8,4 C 7,3 C 90 % 1010,3 hPa 0,0 l/m 0 min 0 min 0,0 UV-I 0 W/m 12,9 km/h (3 Bft)
27.05.2013 02:22 8,3 C 7,3 C 90 % 1010,3 hPa 0,0 l/m 0 min 0 min 0,0 UV-I 0 W/m 7,7 km/h (2 Bft)
27.05.2013 02:24 8,3 C 7,3 C 90 % 1010,2 hPa 0,0 l/m 0 min 0 min 0,0 UV-I 0 W/m 5,1 km/h (1 Bft)
27.05.2013 02:26 8,3 C 7,3 C 90 % 1010,2 hPa 0,0 l/m 0 min 0 min 0,0 UV-I 0 W/m 0,0 km/h (0 Bft)
27.05.2013 02:28 8,3 C 7,3 C 90 % 1010,2 hPa 0,0 l/m 0 min 0 min 0,0 UV-I 0 W/m 0,0 km/h (0 Bft)
27.05.2013 02:30 8,3 C 7,3 C 90 % 1010,3 hPa 0,0 l/m 0 min 0 min 0,0 UV-I 0 W/m 0,0 km/h (0 Bft)
27.05.2013 02:32 8,3 C 7,3 C 90 % 1010,3 hPa 0,0 l/m 0 min 0 min 0,0 UV-I 0 W/m 0,0 km/h (0 Bft)
27.05.2013 02:34 8,3 C 7,3 C 90 % 1010,3 hPa 0,0 l/m 0 min 0 min 0,0 UV-I 0 W/m 2,6 km/h (1 Bft)
27.05.2013 02:36 8,3 C 7,3 C 90 % 1010,3 hPa 0,0 l/m 0 min 0 min 0,0 UV-I 0 W/m 7,7 km/h (2 Bft)
27.05.2013 02:38 8,3 C 7,3 C 90 % 1010,2 hPa 0,0 l/m 0 min 0 min 0,0 UV-I 0 W/m 15,4 km/h (3 Bft)
27.05.2013 02:40 8,3 C 7,3 C 90 % 1010,3 hPa 0,0 l/m 0 min 0 min 0,0 UV-I 0 W/m 10,3 km/h (2 Bft)
27.05.2013 02:42 8,3 C 7,3 C 90 % 1010,2 hPa 0,0 l/m 0 min 0 min 0,0 UV-I 0 W/m 0,0 km/h (0 Bft)
27.05.2013 02:44 8,3 C 7,3 C 90 % 1010,2 hPa 0,0 l/m 0 min 0 min 0,0 UV-I 0 W/m 12,9 km/h (3 Bft)
27.05.2013 02:46 8,3 C 7,3 C 90 % 1010,2 hPa 0,0 l/m 0 min 0 min 0,0 UV-I 0 W/m 2,6 km/h (1 Bft)
27.05.2013 02:48 8,3 C 7,3 C 90 % 1010,1 hPa 0,0 l/m 0 min 0 min 0,0 UV-I 0 W/m 5,1 km/h (1 Bft)
27.05.2013 02:50 8,3 C 7,3 C 90 % 1010,2 hPa 0,0 l/m 0 min 0 min 0,0 UV-I 0 W/m 10,3 km/h (2 Bft)
27.05.2013 02:52 8,3 C 7,3 C 90 % 1010,1 hPa 0,0 l/m 0 min 0 min 0,0 UV-I 0 W/m 5,1 km/h (1 Bft)
27.05.2013 02:54 8,2 C 7,3 C 90 % 1010,2 hPa 0,0 l/m 0 min 0 min 0,0 UV-I 0 W/m 7,7 km/h (2 Bft)
27.05.2013 02:56 8,2 C 7,3 C 90 % 1010,1 hPa 0,0 l/m 0 min 0 min 0,0 UV-I 0 W/m 15,4 km/h (3 Bft)
27.05.2013 02:58 8,2 C 7,3 C 90 % 1010,1 hPa 0,0 l/m 0 min 0 min 0,0 UV-I 0 W/m 23,2 km/h (4 Bft)
27.05.2013 03:00 8,2 C 7,3 C 90 % 1010,1 hPa 0,0 l/m 0 min 0 min 0,0 UV-I 0 W/m 15,4 km/h (3 Bft)
27.05.2013 03:02 8,2 C 7,3 C 90 % 1010,1 hPa 0,0 l/m 0 min 0 min 0,0 UV-I 0 W/m 2,6 km/h (1 Bft)
27.05.2013 03:04 8,2 C 7,3 C 90 % 1010,1 hPa 0,0 l/m 0 min 0 min 0,0 UV-I 0 W/m 12,9 km/h (3 Bft)
27.05.2013 03:06 8,2 C 7,3 C 90 % 1010,0 hPa 0,0 l/m 0 min 0 min 0,0 UV-I 0 W/m 5,1 km/h (1 Bft)
27.05.2013 03:08 8,2 C 7,3 C 90 % 1010,1 hPa 0,0 l/m 0 min 0 min 0,0 UV-I 0 W/m 12,9 km/h (3 Bft)
27.05.2013 03:10 8,2 C 7,3 C 90 % 1010,0 hPa 0,0 l/m 0 min 0 min 0,0 UV-I 0 W/m 2,6 km/h (1 Bft)
27.05.2013 03:12 8,1 C 7,3 C 90 % 1010,1 hPa 0,0 l/m 0 min 0 min 0,0 UV-I 0 W/m 7,7 km/h (2 Bft)
27.05.2013 03:14 8,1 C 7,3 C 90 % 1010,0 hPa 0,0 l/m 0 min 0 min 0,0 UV-I 0 W/m 5,1 km/h (1 Bft)
27.05.2013 03:16 8,1 C 7,3 C 91 % 1010,0 hPa 0,0 l/m 0 min 0 min 0,0 UV-I 0 W/m 7,7 km/h (2 Bft)
27.05.2013 03:18 8,1 C 7,3 C 91 % 1009,9 hPa 0,0 l/m 0 min 0 min 0,0 UV-I 0 W/m 12,9 km/h (3 Bft)
27.05.2013 03:20 8,1 C 7,3 C 91 % 1009,9 hPa 0,0 l/m 0 min 0 min 0,0 UV-I 0 W/m 2,6 km/h (1 Bft)
27.05.2013 03:22 8,1 C 7,3 C 91 % 1010,0 hPa 0,0 l/m 0 min 0 min 0,0 UV-I 0 W/m 5,1 km/h (1 Bft)
27.05.2013 03:24 8,1 C 7,3 C 91 % 1009,9 hPa 0,0 l/m 0 min 0 min 0,0 UV-I 0 W/m 10,3 km/h (2 Bft)
27.05.2013 03:26 8,1 C 7,3 C 91 % 1009,9 hPa 0,0 l/m 0 min 0 min 0,0 UV-I 0 W/m 10,3 km/h (2 Bft)
27.05.2013 03:28 8,1 C 7,3 C 91 % 1009,9 hPa 0,0 l/m 0 min 0 min 0,0 UV-I 0 W/m 7,7 km/h (2 Bft)
27.05.2013 03:30 8,1 C 7,3 C 91 % 1009,9 hPa 0,0 l/m 0 min 0 min 0,0 UV-I 0 W/m 5,1 km/h (1 Bft)
27.05.2013 03:32 8,0 C 7,3 C 91 % 1009,9 hPa 0,0 l/m 0 min 0 min 0,0 UV-I 0 W/m 5,1 km/h (1 Bft)
27.05.2013 03:34 8,0 C 7,3 C 91 % 1009,8 hPa 0,0 l/m 0 min 0 min 0,0 UV-I 0 W/m 5,1 km/h (1 Bft)
27.05.2013 03:36 8,0 C 6,8 C 91 % 1009,9 hPa 0,0 l/m 0 min 0 min 0,0 UV-I 0 W/m 0,0 km/h (0 Bft)
27.05.2013 03:38 8,0 C 6,8 C 91 % 1009,8 hPa 0,0 l/m 0 min 0 min 0,0 UV-I 0 W/m 10,3 km/h (2 Bft)
27.05.2013 03:40 8,0 C 6,8 C 91 % 1009,8 hPa 0,0 l/m 0 min 0 min 0,0 UV-I 0 W/m 5,1 km/h (1 Bft)
27.05.2013 03:42 7,9 C 6,8 C 91 % 1009,8 hPa 0,0 l/m 0 min 0 min 0,0 UV-I 0 W/m 0,0 km/h (0 Bft)
27.05.2013 03:44 7,9 C 6,8 C 91 % 1009,8 hPa 0,0 l/m 0 min 0 min 0,0 UV-I 0 W/m 0,0 km/h (0 Bft)
27.05.2013 03:46 7,9 C 6,8 C 91 % 1009,8 hPa 0,0 l/m 0 min 0 min 0,0 UV-I 0 W/m 5,1 km/h (1 Bft)
27.05.2013 03:48 7,9 C 6,8 C 91 % 1009,9 hPa 0,0 l/m 0 min 0 min 0,0 UV-I 0 W/m 7,7 km/h (2 Bft)
27.05.2013 03:50 7,9 C 6,8 C 91 % 1009,9 hPa 0,0 l/m 0 min 0 min 0,0 UV-I 0 W/m 10,3 km/h (2 Bft)
27.05.2013 03:52 7,9 C 6,8 C 91 % 1009,9 hPa 0,0 l/m 0 min 0 min 0,0 UV-I 0 W/m 15,4 km/h (3 Bft)
27.05.2013 03:54 7,9 C 6,8 C 91 % 1009,9 hPa 0,0 l/m 0 min 0 min 0,0 UV-I 0 W/m 7,7 km/h (2 Bft)
27.05.2013 03:56 7,9 C 6,8 C 91 % 1009,9 hPa 0,0 l/m 0 min 0 min 0,0 UV-I 0 W/m 7,7 km/h (2 Bft)
27.05.2013 03:58 7,9 C 6,8 C 91 % 1009,9 hPa 0,0 l/m 0 min 0 min 0,0 UV-I 0 W/m 5,1 km/h (1 Bft)
27.05.2013 04:00 7,9 C 6,8 C 91 % 1009,9 hPa 0,0 l/m 0 min 0 min 0,0 UV-I 0 W/m 0,0 km/h (0 Bft)
27.05.2013 04:02 7,9 C 6,8 C 91 % 1009,9 hPa 0,0 l/m 0 min 0 min 0,0 UV-I 0 W/m 5,1 km/h (1 Bft)
27.05.2013 04:04 7,9 C 6,8 C 91 % 1009,9 hPa 0,0 l/m 0 min 0 min 0,0 UV-I 0 W/m 7,7 km/h (2 Bft)
27.05.2013 04:06 7,9 C 6,8 C 91 % 1010,0 hPa 0,0 l/m 0 min 0 min 0,0 UV-I 0 W/m 5,1 km/h (1 Bft)
27.05.2013 04:08 7,9 C 6,8 C 91 % 1010,0 hPa 0,0 l/m 0 min 0 min 0,0 UV-I 0 W/m 2,6 km/h (1 Bft)
27.05.2013 04:10 7,8 C 6,8 C 91 % 1009,9 hPa 0,0 l/m 0 min 0 min 0,0 UV-I 0 W/m 2,6 km/h (1 Bft)
27.05.2013 04:12 7,9 C 6,8 C 91 % 1009,9 hPa 0,0 l/m 0 min 0 min 0,0 UV-I 0 W/m 0,0 km/h (0 Bft)
27.05.2013 04:14 7,9 C 6,8 C 91 % 1009,9 hPa 0,0 l/m 0 min 0 min 0,0 UV-I 0 W/m 10,3 km/h (2 Bft)
27.05.2013 04:16 7,9 C 6,8 C 91 % 1009,9 hPa 0,0 l/m 0 min 0 min 0,0 UV-I 0 W/m 0,0 km/h (0 Bft)
27.05.2013 04:18 7,8 C 6,8 C 91 % 1009,9 hPa 0,0 l/m 0 min 0 min 0,0 UV-I 0 W/m 5,1 km/h (1 Bft)
27.05.2013 04:20 7,8 C 6,8 C 91 % 1009,9 hPa 0,0 l/m 0 min 0 min 0,0 UV-I 0 W/m 2,6 km/h (1 Bft)
27.05.2013 04:22 7,8 C 6,8 C 91 % 1009,8 hPa 0,0 l/m 0 min 0 min 0,0 UV-I 0 W/m 5,1 km/h (1 Bft)
27.05.2013 04:24 7,8 C 6,8 C 91 % 1009,8 hPa 0,0 l/m 0 min 0 min 0,0 UV-I 0 W/m 0,0 km/h (0 Bft)
27.05.2013 04:26 7,8 C 6,8 C 91 % 1009,8 hPa 0,0 l/m 0 min 0 min 0,0 UV-I 0 W/m 0,0 km/h (0 Bft)
27.05.2013 04:28 7,8 C 6,8 C 91 % 1009,9 hPa 0,0 l/m 0 min 0 min 0,0 UV-I 0 W/m 5,1 km/h (1 Bft)
27.05.2013 04:30 7,8 C 6,8 C 91 % 1009,9 hPa 0,0 l/m 0 min 0 min 0,0 UV-I 0 W/m 0,0 km/h (0 Bft)
27.05.2013 04:32 7,8 C 6,8 C 91 % 1009,8 hPa 0,0 l/m 0 min 0 min 0,0 UV-I 0 W/m 10,3 km/h (2 Bft)
27.05.2013 04:34 7,8 C 6,8 C 91 % 1009,8 hPa 0,0 l/m 0 min 0 min 0,0 UV-I 0 W/m 5,1 km/h (1 Bft)
27.05.2013 04:36 7,8 C 6,8 C 91 % 1009,8 hPa 0,0 l/m 0 min 0 min 0,0 UV-I 0 W/m 0,0 km/h (0 Bft)
27.05.2013 04:38 7,8 C 6,8 C 91 % 1009,8 hPa 0,0 l/m 0 min 0 min 0,0 UV-I 0 W/m 0,0 km/h (0 Bft)
27.05.2013 04:40 7,8 C 6,8 C 91 % 1009,8 hPa 0,0 l/m 0 min 0 min 0,0 UV-I 0 W/m 0,0 km/h (0 Bft)
27.05.2013 04:42 7,8 C 6,8 C 91 % 1009,8 hPa 0,0 l/m 0 min 0 min 0,0 UV-I 0 W/m 2,6 km/h (1 Bft)
27.05.2013 04:44 7,8 C 6,8 C 91 % 1009,9 hPa 0,0 l/m 0 min 0 min 0,0 UV-I 0 W/m 7,7 km/h (2 Bft)
27.05.2013 04:46 7,8 C 6,8 C 91 % 1009,9 hPa 0,0 l/m 0 min 0 min 0,0 UV-I 0 W/m 10,3 km/h (2 Bft)
27.05.2013 04:48 7,8 C 6,8 C 91 % 1009,8 hPa 0,0 l/m 0 min 0 min 0,0 UV-I 0 W/m 5,1 km/h (1 Bft)
27.05.2013 04:50 7,8 C 6,8 C 90 % 1009,9 hPa 0,0 l/m 0 min 0 min 0,0 UV-I 0 W/m 0,0 km/h (0 Bft)
27.05.2013 04:52 7,8 C 6,8 C 90 % 1009,8 hPa 0,0 l/m 0 min 0 min 0,0 UV-I 0 W/m 0,0 km/h (0 Bft)
27.05.2013 04:54 7,8 C 6,8 C 90 % 1009,8 hPa 0,0 l/m 0 min 0 min 0,0 UV-I 0 W/m 0,0 km/h (0 Bft)
27.05.2013 04:56 7,8 C 6,8 C 90 % 1009,7 hPa 0,0 l/m 0 min 0 min 0,0 UV-I 0 W/m 2,6 km/h (1 Bft)
27.05.2013 04:58 7,8 C 6,8 C 90 % 1009,8 hPa 0,0 l/m 0 min 0 min 0,0 UV-I 0 W/m 2,6 km/h (1 Bft)
27.05.2013 05:00 7,8 C 6,8 C 90 % 1009,8 hPa 0,0 l/m 0 min 0 min 0,0 UV-I 0 W/m 0,0 km/h (0 Bft)
27.05.2013 05:02 7,8 C 6,8 C 90 % 1009,8 hPa 0,0 l/m 0 min 0 min 0,0 UV-I 0 W/m 0,0 km/h (0 Bft)
27.05.2013 05:04 7,7 C 6,8 C 90 % 1009,8 hPa 0,0 l/m 0 min 0 min 0,0 UV-I 0 W/m 10,3 km/h (2 Bft)
27.05.2013 05:06 7,7 C 6,8 C 90 % 1009,8 hPa 0,0 l/m 0 min 0 min 0,0 UV-I 0 W/m 7,7 km/h (2 Bft)
27.05.2013 05:08 7,7 C 6,8 C 90 % 1009,8 hPa 0,0 l/m 0 min 0 min 0,0 UV-I 0 W/m 7,7 km/h (2 Bft)
27.05.2013 05:10 7,7 C 6,8 C 90 % 1009,8 hPa 0,0 l/m 0 min 0 min 0,0 UV-I 0 W/m 0,0 km/h (0 Bft)
27.05.2013 05:12 7,7 C 6,8 C 90 % 1009,7 hPa 0,0 l/m 0 min 0 min 0,0 UV-I 0 W/m 5,1 km/h (1 Bft)
27.05.2013 05:14 7,7 C 6,8 C 90 % 1009,7 hPa 0,0 l/m 0 min 0 min 0,0 UV-I 0 W/m 5,1 km/h (1 Bft)
27.05.2013 05:16 7,7 C 6,8 C 90 % 1009,8 hPa 0,0 l/m 0 min 0 min 0,0 UV-I 0 W/m 5,1 km/h (1 Bft)
27.05.2013 05:18 7,7 C 6,8 C 90 % 1009,8 hPa 0,0 l/m 0 min 0 min 0,0 UV-I 0 W/m 7,7 km/h (2 Bft)
27.05.2013 05:20 7,7 C 6,8 C 90 % 1009,8 hPa 0,0 l/m 0 min 0 min 0,0 UV-I 0 W/m 5,1 km/h (1 Bft)
27.05.2013 05:22 7,8 C 6,8 C 90 % 1009,8 hPa 0,0 l/m 0 min 0 min 0,0 UV-I 0 W/m 10,3 km/h (2 Bft)
27.05.2013 05:24 7,8 C 6,8 C 90 % 1009,8 hPa 0,0 l/m 0 min 0 min 0,0 UV-I 0 W/m 7,7 km/h (2 Bft)
27.05.2013 05:26 7,8 C 6,8 C 90 % 1009,8 hPa 0,0 l/m 0 min 0 min 0,0 UV-I 0 W/m 0,0 km/h (0 Bft)
27.05.2013 05:28 7,8 C 6,8 C 90 % 1009,8 hPa 0,0 l/m 0 min 0 min 0,0 UV-I 5 W/m 2,6 km/h (1 Bft)
27.05.2013 05:30 7,8 C 6,8 C 90 % 1009,8 hPa 0,0 l/m 0 min 0 min 0,0 UV-I 7 W/m 7,7 km/h (2 Bft)
27.05.2013 05:32 7,8 C 6,8 C 90 % 1009,8 hPa 0,0 l/m 0 min 0 min 0,0 UV-I 7 W/m 2,6 km/h (1 Bft)
27.05.2013 05:34 7,8 C 6,8 C 90 % 1009,8 hPa 0,0 l/m 0 min 0 min 0,0 UV-I 7 W/m 2,6 km/h (1 Bft)
27.05.2013 05:36 7,8 C 6,8 C 90 % 1009,8 hPa 0,0 l/m 0 min 0 min 0,0 UV-I 9 W/m 0,0 km/h (0 Bft)
27.05.2013 05:38 7,8 C 6,8 C 90 % 1009,9 hPa 0,0 l/m 0 min 0 min 0,0 UV-I 11 W/m 0,0 km/h (0 Bft)
27.05.2013 05:40 7,8 C 6,8 C 90 % 1009,8 hPa 0,0 l/m 0 min 0 min 0,0 UV-I 12 W/m 5,1 km/h (1 Bft)
27.05.2013 05:42 7,8 C 6,8 C 90 % 1009,8 hPa 0,0 l/m 0 min 0 min 0,0 UV-I 14 W/m 0,0 km/h (0 Bft)
27.05.2013 05:44 7,8 C 6,8 C 90 % 1009,8 hPa 0,0 l/m 0 min 0 min 0,0 UV-I 16 W/m 5,1 km/h (1 Bft)
27.05.2013 05:46 7,8 C 6,8 C 90 % 1009,9 hPa 0,0 l/m 0 min 0 min 0,0 UV-I 18 W/m 5,1 km/h (1 Bft)
27.05.2013 05:48 7,8 C 6,8 C 90 % 1009,9 hPa 0,0 l/m 2 min 0 min 0,0 UV-I 19 W/m 0,0 km/h (0 Bft)
27.05.2013 05:50 7,9 C 7,3 C 90 % 1009,9 hPa 0,0 l/m 2 min 0 min 0,0 UV-I 21 W/m 7,7 km/h (2 Bft)
27.05.2013 05:52 7,9 C 7,3 C 90 % 1009,9 hPa 0,0 l/m 0 min 0 min 0,0 UV-I 21 W/m 0,0 km/h (0 Bft)
27.05.2013 05:54 7,9 C 7,3 C 90 % 1009,9 hPa 0,0 l/m 0 min 0 min 0,0 UV-I 21 W/m 0,0 km/h (0 Bft)
27.05.2013 05:56 7,9 C 7,3 C 90 % 1009,9 hPa 0,0 l/m 0 min 0 min 0,0 UV-I 23 W/m 10,3 km/h (2 Bft)
27.05.2013 05:58 7,9 C 7,3 C 90 % 1009,8 hPa 0,0 l/m 0 min 0 min 0,0 UV-I 25 W/m 10,3 km/h (2 Bft)
27.05.2013 06:00 7,9 C 7,3 C 90 % 1009,8 hPa 0,0 l/m 0 min 0 min 0,0 UV-I 26 W/m 0,0 km/h (0 Bft)
27.05.2013 06:02 7,9 C 7,3 C 90 % 1009,8 hPa 0,0 l/m 0 min 0 min 0,0 UV-I 30 W/m 2,6 km/h (1 Bft)
27.05.2013 06:04 8,0 C 7,3 C 90 % 1009,8 hPa 0,0 l/m 0 min 0 min 0,0 UV-I 32 W/m 12,9 km/h (3 Bft)
27.05.2013 06:06 8,0 C 7,3 C 90 % 1009,8 hPa 0,0 l/m 0 min 0 min 0,0 UV-I 33 W/m 7,7 km/h (2 Bft)
27.05.2013 06:08 8,0 C 7,3 C 90 % 1009,9 hPa 0,0 l/m 0 min 0 min 0,0 UV-I 37 W/m 0,0 km/h (0 Bft)
27.05.2013 06:10 8,1 C 7,3 C 90 % 1009,9 hPa 0,0 l/m 0 min 0 min 0,0 UV-I 37 W/m 0,0 km/h (0 Bft)
27.05.2013 06:12 8,1 C 7,3 C 90 % 1009,9 hPa 0,0 l/m 0 min 0 min 0,0 UV-I 39 W/m 5,1 km/h (1 Bft)
27.05.2013 06:14 8,1 C 7,3 C 90 % 1009,9 hPa 0,0 l/m 0 min 0 min 0,0 UV-I 39 W/m 5,1 km/h (1 Bft)
27.05.2013 06:16 8,1 C 7,3 C 90 % 1009,8 hPa 0,0 l/m 0 min 0 min 0,0 UV-I 42 W/m 7,7 km/h (2 Bft)
27.05.2013 06:18 8,1 C 7,3 C 90 % 1009,9 hPa 0,0 l/m 0 min 0 min 0,0 UV-I 47 W/m 7,7 km/h (2 Bft)
27.05.2013 06:20 8,2 C 7,3 C 90 % 1009,9 hPa 0,0 l/m 0 min 0 min 0,0 UV-I 51 W/m 0,0 km/h (0 Bft)
27.05.2013 06:22 8,2 C 7,3 C 90 % 1009,9 hPa 0,0 l/m 0 min 0 min 0,0 UV-I 54 W/m 10,3 km/h (2 Bft)
27.05.2013 06:24 8,2 C 7,9 C 90 % 1009,9 hPa 0,0 l/m 0 min 0 min 0,0 UV-I 54 W/m 10,3 km/h (2 Bft)
27.05.2013 06:26 8,2 C 7,9 C 90 % 1009,9 hPa 0,0 l/m 0 min 0 min 0,0 UV-I 54 W/m 10,3 km/h (2 Bft)
27.05.2013 06:28 8,3 C 7,9 C 90 % 1010,0 hPa 0,0 l/m 0 min 0 min 0,0 UV-I 54 W/m 10,3 km/h (2 Bft)
27.05.2013 06:30 8,3 C 7,9 C 90 % 1009,9 hPa 0,0 l/m 0 min 0 min 0,0 UV-I 58 W/m 0,0 km/h (0 Bft)
27.05.2013 06:32 8,3 C 7,9 C 90 % 1009,8 hPa 0,0 l/m 0 min 0 min 0,0 UV-I 62 W/m 7,7 km/h (2 Bft)
27.05.2013 06:34 8,3 C 7,9 C 90 % 1009,9 hPa 0,0 l/m 0 min 0 min 0,0 UV-I 65 W/m 2,6 km/h (1 Bft)
27.05.2013 06:36 8,3 C 7,9 C 90 % 1009,9 hPa 0,0 l/m 0 min 0 min 0,0 UV-I 65 W/m 5,1 km/h (1 Bft)
27.05.2013 06:38 8,3 C 7,9 C 90 % 1010,0 hPa 0,0 l/m 0 min 0 min 0,0 UV-I 63 W/m 12,9 km/h (3 Bft)
27.05.2013 06:40 8,4 C 7,9 C 90 % 1009,9 hPa 0,0 l/m 0 min 0 min 0,0 UV-I 65 W/m 0,0 km/h (0 Bft)
27.05.2013 06:42 8,4 C 7,9 C 90 % 1009,9 hPa 0,0 l/m 0 min 0 min 0,0 UV-I 69 W/m 7,7 km/h (2 Bft)
27.05.2013 06:44 8,4 C 7,9 C 90 % 1010,0 hPa 0,0 l/m 0 min 0 min 0,0 UV-I 70 W/m 7,7 km/h (2 Bft)
27.05.2013 06:46 8,5 C 7,9 C 90 % 1009,9 hPa 0,0 l/m 0 min 0 min 0,0 UV-I 70 W/m 5,1 km/h (1 Bft)
27.05.2013 06:48 8,6 C 7,9 C 90 % 1010,0 hPa 0,0 l/m 0 min 0 min 0,0 UV-I 72 W/m 15,4 km/h (3 Bft)
27.05.2013 06:50 8,6 C 7,9 C 89 % 1010,0 hPa 0,0 l/m 0 min 0 min 0,0 UV-I 72 W/m 7,7 km/h (2 Bft)
27.05.2013 06:52 8,6 C 8,4 C 89 % 1010,0 hPa 0,0 l/m 0 min 0 min 0,0 UV-I 74 W/m 5,1 km/h (1 Bft)
27.05.2013 06:54 8,6 C 8,4 C 89 % 1010,0 hPa 0,0 l/m 0 min 0 min 0,0 UV-I 76 W/m 7,7 km/h (2 Bft)
27.05.2013 06:56 8,6 C 8,4 C 89 % 1010,0 hPa 0,0 l/m 0 min 0 min 0,0 UV-I 77 W/m 10,3 km/h (2 Bft)
27.05.2013 06:58 8,7 C 8,4 C 89 % 1010,0 hPa 0,0 l/m 0 min 0 min 0,0 UV-I 79 W/m 10,3 km/h (2 Bft)
27.05.2013 07:00 8,7 C 8,4 C 89 % 1010,0 hPa 0,0 l/m 0 min 0 min 0,0 UV-I 83 W/m 15,4 km/h (3 Bft)
27.05.2013 07:02 8,7 C 8,4 C 88 % 1009,9 hPa 0,0 l/m 0 min 0 min 0,0 UV-I 84 W/m 12,9 km/h (3 Bft)
27.05.2013 07:04 8,7 C 8,4 C 88 % 1010,0 hPa 0,0 l/m 0 min 0 min 0,0 UV-I 86 W/m 15,4 km/h (3 Bft)
27.05.2013 07:06 8,8 C 8,4 C 88 % 1010,0 hPa 0,0 l/m 0 min 0 min 0,0 UV-I 88 W/m 7,7 km/h (2 Bft)
27.05.2013 07:08 8,8 C 8,4 C 88 % 1010,0 hPa 0,0 l/m 0 min 0 min 0,0 UV-I 90 W/m 2,6 km/h (1 Bft)
27.05.2013 07:10 8,8 C 8,4 C 88 % 1010,0 hPa 0,0 l/m 0 min 0 min 0,0 UV-I 91 W/m 2,6 km/h (1 Bft)
27.05.2013 07:12 8,8 C 8,4 C 88 % 1010,0 hPa 0,0 l/m 0 min 0 min 0,0 UV-I 95 W/m 12,9 km/h (3 Bft)
27.05.2013 07:14 8,9 C 8,4 C 88 % 1010,0 hPa 0,0 l/m 0 min 0 min 0,0 UV-I 97 W/m 12,9 km/h (3 Bft)
27.05.2013 07:16 8,9 C 8,4 C 88 % 1010,0 hPa 0,0 l/m 0 min 0 min 0,0 UV-I 98 W/m 10,3 km/h (2 Bft)
27.05.2013 07:18 8,9 C 8,4 C 87 % 1010,0 hPa 0,0 l/m 0 min 0 min 0,0 UV-I 102 W/m 5,1 km/h (1 Bft)
27.05.2013 07:20 8,9 C 8,4 C 87 % 1010,0 hPa 0,0 l/m 0 min 0 min 0,0 UV-I 105 W/m 15,4 km/h (3 Bft)
27.05.2013 07:22 8,9 C 8,4 C 87 % 1010,0 hPa 0,0 l/m 0 min 0 min 0,0 UV-I 109 W/m 7,7 km/h (2 Bft)
27.05.2013 07:24 9,0 C 9,0 C 87 % 1010,0 hPa 0,0 l/m 0 min 0 min 0,0 UV-I 111 W/m 10,3 km/h (2 Bft)
27.05.2013 07:26 9,0 C 9,0 C 87 % 1010,0 hPa 0,0 l/m 0 min 0 min 0,0 UV-I 113 W/m 5,1 km/h (1 Bft)
27.05.2013 07:28 9,1 C 9,0 C 87 % 1010,0 hPa 0,0 l/m 0 min 0 min 0,0 UV-I 114 W/m 7,7 km/h (2 Bft)
27.05.2013 07:30 9,1 C 9,0 C 87 % 1010,0 hPa 0,0 l/m 0 min 0 min 0,0 UV-I 114 W/m 23,2 km/h (4 Bft)
27.05.2013 07:32 9,2 C 9,0 C 87 % 1010,0 hPa 0,0 l/m 0 min 0 min 0,0 UV-I 114 W/m 10,3 km/h (2 Bft)
27.05.2013 07:34 9,2 C 9,0 C 87 % 1010,0 hPa 0,0 l/m 0 min 0 min 0,0 UV-I 111 W/m 5,1 km/h (1 Bft)
27.05.2013 07:36 9,2 C 9,0 C 86 % 1010,0 hPa 0,0 l/m 0 min 0 min 0,0 UV-I 109 W/m 10,3 km/h (2 Bft)
27.05.2013 07:38 9,2 C 9,0 C 86 % 1010,0 hPa 0,0 l/m 0 min 0 min 0,0 UV-I 107 W/m 5,1 km/h (1 Bft)
27.05.2013 07:40 9,3 C 8,4 C 86 % 1010,1 hPa 0,0 l/m 0 min 0 min 0,0 UV-I 104 W/m 12,9 km/h (3 Bft)
27.05.2013 07:42 9,3 C 8,4 C 86 % 1010,0 hPa 0,0 l/m 0 min 0 min 0,0 UV-I 100 W/m 12,9 km/h (3 Bft)
27.05.2013 07:44 9,3 C 8,4 C 86 % 1010,1 hPa 0,0 l/m 0 min 0 min 0,0 UV-I 98 W/m 0,0 km/h (0 Bft)
27.05.2013 07:46 9,3 C 8,4 C 86 % 1010,0 hPa 0,0 l/m 0 min 0 min 0,0 UV-I 95 W/m 7,7 km/h (2 Bft)
27.05.2013 07:48 9,3 C 8,4 C 86 % 1010,0 hPa 0,0 l/m 0 min 0 min 0,0 UV-I 93 W/m 0,0 km/h (0 Bft)
27.05.2013 07:50 9,3 C 8,4 C 86 % 1010,0 hPa 0,0 l/m 0 min 0 min 0,0 UV-I 91 W/m 5,1 km/h (1 Bft)
27.05.2013 07:52 9,3 C 8,4 C 86 % 1010,0 hPa 0,0 l/m 0 min 0 min 0,0 UV-I 88 W/m 7,7 km/h (2 Bft)
27.05.2013 07:54 9,3 C 8,4 C 86 % 1010,0 hPa 0,0 l/m 0 min 0 min 0,0 UV-I 88 W/m 10,3 km/h (2 Bft)
27.05.2013 07:56 9,3 C 8,4 C 86 % 1010,0 hPa 0,0 l/m 0 min 0 min 0,0 UV-I 88 W/m 10,3 km/h (2 Bft)
27.05.2013 07:58 9,3 C 8,4 C 86 % 1010,0 hPa 0,0 l/m 0 min 0 min 0,0 UV-I 130 W/m 0,0 km/h (0 Bft)
27.05.2013 08:00 9,3 C 8,4 C 86 % 1010,0 hPa 0,0 l/m 0 min 0 min 0,0 UV-I 98 W/m 7,7 km/h (2 Bft)
27.05.2013 08:02 9,3 C 8,4 C 86 % 1010,1 hPa 0,0 l/m 0 min 0 min 0,0 UV-I 114 W/m 0,0 km/h (0 Bft)
27.05.2013 08:04 9,3 C 8,4 C 86 % 1010,1 hPa 0,0 l/m 2 min 0 min 0,0 UV-I 274 W/m 10,3 km/h (2 Bft)
27.05.2013 08:06 9,4 C 8,4 C 86 % 1010,1 hPa 0,0 l/m 2 min 0 min 0,0 UV-I 297 W/m 2,6 km/h (1 Bft)
27.05.2013 08:08 9,4 C 9,0 C 86 % 1010,1 hPa 0,0 l/m 0 min 0 min 0,0 UV-I 163 W/m 0,0 km/h (0 Bft)
27.05.2013 08:10 9,4 C 9,0 C 86 % 1010,1 hPa 0,0 l/m 0 min 0 min 0,0 UV-I 174 W/m 0,0 km/h (0 Bft)
27.05.2013 08:12 9,4 C 9,0 C 86 % 1010,2 hPa 0,0 l/m 2 min 0 min 0,0 UV-I 283 W/m 2,6 km/h (1 Bft)
27.05.2013 08:14 9,4 C 9,0 C 87 % 1010,1 hPa 0,0 l/m 2 min 0 min 0,0 UV-I 385 W/m 2,6 km/h (1 Bft)
27.05.2013 08:16 9,5 C 9,0 C 87 % 1010,1 hPa 0,0 l/m 2 min 0 min 0,0 UV-I 388 W/m 10,3 km/h (2 Bft)
27.05.2013 08:18 9,6 C 9,6 C 87 % 1010,1 hPa 0,0 l/m 2 min 0 min 0,0 UV-I 413 W/m 10,3 km/h (2 Bft)
27.05.2013 08:20 9,6 C 9,6 C 87 % 1010,2 hPa 0,0 l/m 2 min 0 min 0,0 UV-I 431 W/m 5,1 km/h (1 Bft)
27.05.2013 08:22 9,7 C 10,1 C 87 % 1010,1 hPa 0,0 l/m 2 min 0 min 0,0 UV-I 480 W/m 7,7 km/h (2 Bft)
27.05.2013 08:24 9,8 C 10,1 C 86 % 1010,1 hPa 0,0 l/m 2 min 0 min 0,0 UV-I 475 W/m 2,6 km/h (1 Bft)
27.05.2013 08:26 9,9 C 10,1 C 86 % 1010,1 hPa 0,0 l/m 2 min 0 min 0,0 UV-I 376 W/m 7,7 km/h (2 Bft)
27.05.2013 08:28 9,9 C 10,1 C 86 % 1010,1 hPa 0,0 l/m 2 min 0 min 0,0 UV-I 264 W/m 12,9 km/h (3 Bft)
27.05.2013 08:30 10,1 C 10,1 C 85 % 1010,1 hPa 0,0 l/m 2 min 0 min 0,0 UV-I 279 W/m 23,2 km/h (4 Bft)
27.05.2013 08:32 10,1 C 10,1 C 85 % 1010,1 hPa 0,0 l/m 0 min 0 min 0,0 UV-I 206 W/m 10,3 km/h (2 Bft)
27.05.2013 08:34 10,2 C 10,1 C 85 % 1010,1 hPa 0,0 l/m 2 min 0 min 0,0 UV-I 376 W/m 7,7 km/h (2 Bft)
27.05.2013 08:36 10,3 C 10,7 C 85 % 1010,1 hPa 0,0 l/m 2 min 0 min 0,5 UV-I 503 W/m 7,7 km/h (2 Bft)
27.05.2013 08:38 10,6 C 10,7 C 84 % 1010,1 hPa 0,0 l/m 2 min 0 min 0,6 UV-I 534 W/m 10,3 km/h (2 Bft)
27.05.2013 08:40 10,9 C 11,2 C 83 % 1010,1 hPa 0,0 l/m 2 min 0 min 0,7 UV-I 571 W/m 5,1 km/h (1 Bft)
27.05.2013 08:42 11,2 C 11,2 C 83 % 1010,1 hPa 0,0 l/m 2 min 0 min 0,7 UV-I 585 W/m 5,1 km/h (1 Bft)
27.05.2013 08:44 11,6 C 11,8 C 83 % 1010,1 hPa 0,0 l/m 2 min 0 min 0,7 UV-I 603 W/m 7,7 km/h (2 Bft)
27.05.2013 08:46 11,9 C 11,8 C 82 % 1010,1 hPa 0,0 l/m 2 min 0 min 0,5 UV-I 599 W/m 15,4 km/h (3 Bft)
27.05.2013 08:48 12,1 C 12,3 C 81 % 1010,1 hPa 0,0 l/m 2 min 0 min 0,7 UV-I 608 W/m 12,9 km/h (3 Bft)
27.05.2013 08:50 12,3 C 12,3 C 80 % 1010,0 hPa 0,0 l/m 2 min 0 min 0,6 UV-I 550 W/m 12,9 km/h (3 Bft)
27.05.2013 08:52 12,4 C 12,3 C 78 % 1010,0 hPa 0,0 l/m 2 min 0 min 0,0 UV-I 306 W/m 10,3 km/h (2 Bft)
27.05.2013 08:54 12,4 C 12,3 C 77 % 1010,0 hPa 0,0 l/m 2 min 0 min 0,0 UV-I 295 W/m 2,6 km/h (1 Bft)
27.05.2013 08:56 12,4 C 12,3 C 77 % 1010,0 hPa 0,0 l/m 2 min 0 min 0,0 UV-I 299 W/m 12,9 km/h (3 Bft)
27.05.2013 08:58 12,3 C 12,3 C 78 % 1010,0 hPa 0,0 l/m 2 min 0 min 0,0 UV-I 297 W/m 12,9 km/h (3 Bft)
27.05.2013 09:00 12,3 C 12,3 C 77 % 1010,1 hPa 0,0 l/m 0 min 0 min 0,0 UV-I 264 W/m 10,3 km/h (2 Bft)
27.05.2013 09:02 12,2 C 11,8 C 77 % 1010,1 hPa 0,0 l/m 0 min 0 min 0,0 UV-I 251 W/m 12,9 km/h (3 Bft)
27.05.2013 09:04 12,1 C 11,8 C 77 % 1010,1 hPa 0,0 l/m 2 min 0 min 0,0 UV-I 279 W/m 7,7 km/h (2 Bft)
27.05.2013 09:06 12,0 C 12,3 C 78 % 1010,0 hPa 0,0 l/m 2 min 0 min 0,8 UV-I 357 W/m 7,7 km/h (2 Bft)
27.05.2013 09:08 12,1 C 12,3 C 79 % 1010,1 hPa 0,0 l/m 2 min 0 min 0,7 UV-I 457 W/m 10,3 km/h (2 Bft)
27.05.2013 09:10 12,1 C 12,3 C 79 % 1010,1 hPa 0,0 l/m 2 min 0 min 0,8 UV-I 538 W/m 15,4 km/h (3 Bft)
27.05.2013 09:12 12,2 C 12,3 C 78 % 1010,1 hPa 0,0 l/m 2 min 0 min 0,8 UV-I 452 W/m 12,9 km/h (3 Bft)
27.05.2013 09:14 12,2 C 12,3 C 77 % 1010,1 hPa 0,0 l/m 2 min 0 min 0,9 UV-I 575 W/m 20,6 km/h (4 Bft)
27.05.2013 09:16 12,2 C 12,3 C 77 % 1010,0 hPa 0,0 l/m 2 min 0 min 0,8 UV-I 571 W/m 10,3 km/h (2 Bft)
27.05.2013 09:18 12,2 C 12,3 C 77 % 1010,0 hPa 0,0 l/m 2 min 0 min 0,9 UV-I 360 W/m 12,9 km/h (3 Bft)
27.05.2013 09:20 12,3 C 12,3 C 77 % 1010,1 hPa 0,0 l/m 2 min 0 min 0,9 UV-I 406 W/m 7,7 km/h (2 Bft)
27.05.2013 09:22 12,3 C 12,3 C 77 % 1010,1 hPa 0,0 l/m 2 min 0 min 0,7 UV-I 338 W/m 10,3 km/h (2 Bft)
27.05.2013 09:24 12,2 C 12,3 C 77 % 1010,1 hPa 0,0 l/m 2 min 0 min 0,8 UV-I 355 W/m 18,0 km/h (3 Bft)
27.05.2013 09:26 12,2 C 12,3 C 77 % 1010,1 hPa 0,0 l/m 2 min 0 min 1,1 UV-I 557 W/m 7,7 km/h (2 Bft)
27.05.2013 09:28 12,3 C 12,3 C 77 % 1010,2 hPa 0,0 l/m 2 min 0 min 1,0 UV-I 462 W/m 7,7 km/h (2 Bft)
27.05.2013 09:30 12,3 C 12,3 C 77 % 1010,1 hPa 0,0 l/m 2 min 0 min 1,2 UV-I 573 W/m 12,9 km/h (3 Bft)
27.05.2013 09:32 12,4 C 12,9 C 77 % 1010,2 hPa 0,0 l/m 2 min 0 min 1,2 UV-I 561 W/m 10,3 km/h (2 Bft)
27.05.2013 09:34 12,6 C 12,9 C 77 % 1010,1 hPa 0,0 l/m 2 min 0 min 1,2 UV-I 526 W/m 12,9 km/h (3 Bft)
27.05.2013 09:36 12,7 C 12,9 C 77 % 1010,1 hPa 0,0 l/m 2 min 0 min 1,1 UV-I 524 W/m 12,9 km/h (3 Bft)
27.05.2013 09:38 12,7 C 12,9 C 78 % 1010,2 hPa 0,0 l/m 2 min 0 min 1,0 UV-I 406 W/m 2,6 km/h (1 Bft)
27.05.2013 09:40 12,8 C 12,9 C 77 % 1010,1 hPa 0,0 l/m 2 min 0 min 1,2 UV-I 510 W/m 0,0 km/h (0 Bft)
27.05.2013 09:42 12,9 C 12,9 C 77 % 1010,1 hPa 0,0 l/m 2 min 0 min 1,3 UV-I 503 W/m 18,0 km/h (3 Bft)
27.05.2013 09:44 12,9 C 12,9 C 75 % 1010,2 hPa 0,0 l/m 2 min 0 min 1,2 UV-I 524 W/m 15,4 km/h (3 Bft)
27.05.2013 09:46 13,0 C 13,4 C 75 % 1010,2 hPa 0,0 l/m 2 min 0 min 1,3 UV-I 489 W/m 10,3 km/h (2 Bft)
27.05.2013 09:48 13,1 C 14,0 C 75 % 1010,2 hPa 0,0 l/m 2 min 0 min 1,4 UV-I 519 W/m 10,3 km/h (2 Bft)
27.05.2013 09:50 13,1 C 15,7 C 75 % 1010,2 hPa 0,0 l/m 2 min 0 min 1,4 UV-I 519 W/m 2,6 km/h (1 Bft)
27.05.2013 09:52 13,2 C 16,8 C 75 % 1010,2 hPa 0,0 l/m 2 min 0 min 1,4 UV-I 483 W/m 12,9 km/h (3 Bft)
27.05.2013 09:54 13,3 C 17,9 C 75 % 1010,2 hPa 0,0 l/m 2 min 0 min 1,5 UV-I 529 W/m 12,9 km/h (3 Bft)
27.05.2013 09:56 13,3 C 17,9 C 74 % 1010,2 hPa 0,0 l/m 2 min 0 min 1,6 UV-I 559 W/m 7,7 km/h (2 Bft)
27.05.2013 09:58 13,4 C 18,4 C 74 % 1010,3 hPa 0,0 l/m 2 min 0 min 1,7 UV-I 585 W/m 10,3 km/h (2 Bft)
27.05.2013 10:00 13,5 C 19,0 C 74 % 1010,3 hPa 0,0 l/m 2 min 0 min 1,7 UV-I 594 W/m 18,0 km/h (3 Bft)
27.05.2013 10:02 13,6 C 19,6 C 74 % 1010,3 hPa 0,0 l/m 2 min 0 min 1,8 UV-I 617 W/m 10,3 km/h (2 Bft)
27.05.2013 10:04 13,7 C 20,1 C 74 % 1010,2 hPa 0,0 l/m 2 min 0 min 1,8 UV-I 619 W/m 5,1 km/h (1 Bft)
27.05.2013 10:06 13,8 C 21,2 C 74 % 1010,3 hPa 0,0 l/m 2 min 0 min 1,9 UV-I 626 W/m 2,6 km/h (1 Bft)
27.05.2013 10:08 14,0 C 21,8 C 74 % 1010,2 hPa 0,0 l/m 2 min 0 min 2,0 UV-I 650 W/m 12,9 km/h (3 Bft)
27.05.2013 10:10 14,1 C 22,3 C 74 % 1010,2 hPa 0,0 l/m 2 min 0 min 2,1 UV-I 659 W/m 15,4 km/h (3 Bft)
27.05.2013 10:12 14,2 C 21,2 C 72 % 1010,1 hPa 0,0 l/m 2 min 0 min 2,1 UV-I 666 W/m 18,0 km/h (3 Bft)
27.05.2013 10:14 14,3 C 21,8 C 71 % 1010,2 hPa 0,0 l/m 2 min 0 min 2,2 UV-I 666 W/m 12,9 km/h (3 Bft)
27.05.2013 10:16 14,4 C 22,3 C 71 % 1010,1 hPa 0,0 l/m 2 min 0 min 2,2 UV-I 687 W/m 7,7 km/h (2 Bft)
27.05.2013 10:18 14,6 C 22,9 C 71 % 1010,1 hPa 0,0 l/m 2 min 0 min 1,9 UV-I 504 W/m 2,6 km/h (1 Bft)
27.05.2013 10:20 14,7 C 21,8 C 70 % 1010,1 hPa 0,0 l/m 2 min 0 min 1,7 UV-I 408 W/m 15,4 km/h (3 Bft)
27.05.2013 10:22 14,8 C 21,2 C 70 % 1010,0 hPa 0,0 l/m 2 min 0 min 2,4 UV-I 408 W/m 10,3 km/h (2 Bft)
27.05.2013 10:24 14,9 C 22,9 C 69 % 1010,1 hPa 0,0 l/m 2 min 0 min 2,5 UV-I 733 W/m 12,9 km/h (3 Bft)
27.05.2013 10:26 15,1 C 22,3 C 68 % 1010,1 hPa 0,0 l/m 2 min 0 min 2,5 UV-I 744 W/m 15,4 km/h (3 Bft)
27.05.2013 10:28 15,2 C 22,9 C 67 % 1010,1 hPa 0,0 l/m 2 min 0 min 2,5 UV-I 733 W/m 12,9 km/h (3 Bft)
27.05.2013 10:30 15,3 C 22,3 C 68 % 1010,1 hPa 0,0 l/m 2 min 0 min 2,6 UV-I 733 W/m 5,1 km/h (1 Bft)
27.05.2013 10:32 15,4 C 22,9 C 67 % 1010,1 hPa 0,0 l/m 2 min 0 min 2,5 UV-I 745 W/m 10,3 km/h (2 Bft)
27.05.2013 10:34 15,6 C 23,4 C 67 % 1010,1 hPa 0,0 l/m 2 min 0 min 2,6 UV-I 728 W/m 10,3 km/h (2 Bft)
27.05.2013 10:36 15,7 C 23,4 C 66 % 1010,1 hPa 0,0 l/m 2 min 0 min 2,7 UV-I 737 W/m 12,9 km/h (3 Bft)
27.05.2013 10:38 15,7 C 22,9 C 65 % 1010,2 hPa 0,0 l/m 2 min 0 min 2,7 UV-I 738 W/m 20,6 km/h (4 Bft)
27.05.2013 10:40 15,8 C 22,9 C 64 % 1010,2 hPa 0,0 l/m 2 min 0 min 2,7 UV-I 737 W/m 15,4 km/h (3 Bft)
27.05.2013 10:42 15,9 C 22,9 C 64 % 1010,2 hPa 0,0 l/m 2 min 0 min 2,7 UV-I 733 W/m 10,3 km/h (2 Bft)
27.05.2013 10:44 15,9 C 22,9 C 64 % 1010,1 hPa 0,0 l/m 2 min 0 min 2,8 UV-I 737 W/m 7,7 km/h (2 Bft)
27.05.2013 10:46 16,1 C 22,3 C 64 % 1010,2 hPa 0,0 l/m 2 min 0 min 2,7 UV-I 726 W/m 18,0 km/h (3 Bft)
27.05.2013 10:48 16,1 C 22,9 C 63 % 1010,2 hPa 0,0 l/m 2 min 0 min 2,8 UV-I 742 W/m 25,7 km/h (4 Bft)
27.05.2013 10:50 16,2 C 22,9 C 65 % 1010,2 hPa 0,0 l/m 2 min 0 min 2,9 UV-I 751 W/m 7,7 km/h (2 Bft)
27.05.2013 10:52 16,3 C 22,9 C 65 % 1010,2 hPa 0,0 l/m 2 min 0 min 2,9 UV-I 752 W/m 23,2 km/h (4 Bft)
27.05.2013 10:54 16,3 C 24,0 C 65 % 1010,1 hPa 0,0 l/m 2 min 0 min 3,0 UV-I 768 W/m 12,9 km/h (3 Bft)
27.05.2013 10:56 16,4 C 24,0 C 66 % 1010,2 hPa 0,0 l/m 2 min 0 min 3,0 UV-I 775 W/m 10,3 km/h (2 Bft)
27.05.2013 10:58 16,5 C 22,9 C 66 % 1010,3 hPa 0,0 l/m 2 min 0 min 3,1 UV-I 765 W/m 15,4 km/h (3 Bft)
27.05.2013 11:00 16,6 C 22,3 C 64 % 1010,3 hPa 0,0 l/m 2 min 0 min 2,9 UV-I 738 W/m 12,9 km/h (3 Bft)
27.05.2013 11:02 16,6 C 22,3 C 65 % 1010,2 hPa 0,0 l/m 2 min 0 min 2,8 UV-I 714 W/m 7,7 km/h (2 Bft)
27.05.2013 11:04 16,7 C 22,9 C 65 % 1010,2 hPa 0,0 l/m 2 min 0 min 3,1 UV-I 789 W/m 15,4 km/h (3 Bft)
27.05.2013 11:06 16,7 C 23,4 C 64 % 1010,2 hPa 0,0 l/m 2 min 0 min 3,1 UV-I 782 W/m 10,3 km/h (2 Bft)
27.05.2013 11:08 16,8 C 23,4 C 66 % 1010,3 hPa 0,0 l/m 2 min 0 min 2,8 UV-I 694 W/m 15,4 km/h (3 Bft)
27.05.2013 11:10 16,8 C 22,3 C 64 % 1010,3 hPa 0,0 l/m 2 min 0 min 3,1 UV-I 613 W/m 15,4 km/h (3 Bft)
27.05.2013 11:12 16,8 C 24,0 C 66 % 1010,2 hPa 0,0 l/m 2 min 0 min 3,2 UV-I 810 W/m 12,9 km/h (3 Bft)
27.05.2013 11:14 16,9 C 24,0 C 66 % 1010,2 hPa 0,0 l/m 2 min 0 min 3,2 UV-I 805 W/m 12,9 km/h (3 Bft)
27.05.2013 11:16 17,1 C 24,0 C 67 % 1010,3 hPa 0,0 l/m 2 min 0 min 3,2 UV-I 789 W/m 15,4 km/h (3 Bft)
27.05.2013 11:18 17,1 C 24,0 C 67 % 1010,3 hPa 0,0 l/m 2 min 0 min 3,2 UV-I 796 W/m 7,7 km/h (2 Bft)
27.05.2013 11:20 17,2 C 23,4 C 66 % 1010,3 hPa 0,0 l/m 2 min 0 min 3,2 UV-I 772 W/m 20,6 km/h (4 Bft)
27.05.2013 11:22 17,3 C 22,9 C 64 % 1010,2 hPa 0,0 l/m 2 min 0 min 3,3 UV-I 784 W/m 15,4 km/h (3 Bft)
27.05.2013 11:24 17,3 C 22,9 C 64 % 1010,3 hPa 0,0 l/m 2 min 0 min 3,4 UV-I 784 W/m 20,6 km/h (4 Bft)
27.05.2013 11:26 17,3 C 22,9 C 63 % 1010,2 hPa 0,0 l/m 2 min 0 min 3,4 UV-I 784 W/m 10,3 km/h (2 Bft)
27.05.2013 11:28 17,3 C 23,4 C 65 % 1010,2 hPa 0,0 l/m 2 min 0 min 3,4 UV-I 782 W/m 2,6 km/h (1 Bft)
27.05.2013 11:30 17,3 C 22,9 C 65 % 1010,2 hPa 0,0 l/m 2 min 0 min 3,4 UV-I 765 W/m 12,9 km/h (3 Bft)
27.05.2013 11:32 17,3 C 22,9 C 65 % 1010,2 hPa 0,0 l/m 2 min 0 min 3,4 UV-I 775 W/m 20,6 km/h (4 Bft)
27.05.2013 11:34 17,4 C 22,9 C 65 % 1010,2 hPa 0,0 l/m 2 min 0 min 3,5 UV-I 782 W/m 18,0 km/h (3 Bft)
27.05.2013 11:36 17,4 C 22,3 C 63 % 1010,2 hPa 0,0 l/m 2 min 0 min 3,5 UV-I 782 W/m 10,3 km/h (2 Bft)
27.05.2013 11:38 17,4 C 22,3 C 66 % 1010,2 hPa 0,0 l/m 2 min 0 min 3,6 UV-I 780 W/m 12,9 km/h (3 Bft)
27.05.2013 11:40 17,4 C 21,8 C 64 % 1010,2 hPa 0,0 l/m 2 min 0 min 3,7 UV-I 796 W/m 20,6 km/h (4 Bft)
27.05.2013 11:42 17,4 C 20,7 C 65 % 1010,2 hPa 0,0 l/m 2 min 0 min 3,7 UV-I 812 W/m 12,9 km/h (3 Bft)
27.05.2013 11:44 17,1 C 20,1 C 64 % 1010,2 hPa 0,0 l/m 2 min 0 min 3,9 UV-I 833 W/m 20,6 km/h (4 Bft)
27.05.2013 11:46 16,8 C 20,7 C 67 % 1010,2 hPa 0,0 l/m 2 min 0 min 3,7 UV-I 821 W/m 7,7 km/h (2 Bft)
27.05.2013 11:48 16,9 C 21,8 C 66 % 1010,2 hPa 0,0 l/m 2 min 0 min 3,9 UV-I 833 W/m 20,6 km/h (4 Bft)
27.05.2013 11:50 16,9 C 22,9 C 64 % 1010,2 hPa 0,0 l/m 2 min 0 min 3,9 UV-I 844 W/m 5,1 km/h (1 Bft)
27.05.2013 11:52 17,0 C 24,0 C 64 % 1010,2 hPa 0,0 l/m 2 min 0 min 3,8 UV-I 840 W/m 20,6 km/h (4 Bft)
27.05.2013 11:54 17,0 C 24,0 C 65 % 1010,2 hPa 0,0 l/m 2 min 0 min 4,0 UV-I 874 W/m 10,3 km/h (2 Bft)
27.05.2013 11:56 17,2 C 24,0 C 65 % 1010,2 hPa 0,0 l/m 2 min 0 min 4,0 UV-I 884 W/m 15,4 km/h (3 Bft)
27.05.2013 11:58 17,2 C 24,6 C 62 % 1010,2 hPa 0,0 l/m 2 min 0 min 4,1 UV-I 919 W/m 18,0 km/h (3 Bft)
27.05.2013 12:00 17,2 C 25,1 C 63 % 1010,2 hPa 0,0 l/m 2 min 0 min 3,7 UV-I 752 W/m 5,1 km/h (1 Bft)
27.05.2013 12:02 17,2 C 25,1 C 65 % 1010,1 hPa 0,0 l/m 2 min 0 min 4,1 UV-I 758 W/m 12,9 km/h (3 Bft)
27.05.2013 12:04 17,3 C 25,7 C 65 % 1010,2 hPa 0,0 l/m 2 min 0 min 4,1 UV-I 912 W/m 15,4 km/h (3 Bft)
27.05.2013 12:06 17,5 C 25,7 C 63 % 1010,2 hPa 0,0 l/m 2 min 0 min 4,3 UV-I 942 W/m 12,9 km/h (3 Bft)
27.05.2013 12:08 17,4 C 25,1 C 63 % 1010,2 hPa 0,0 l/m 2 min 0 min 4,2 UV-I 951 W/m 15,4 km/h (3 Bft)
27.05.2013 12:10 17,6 C 25,7 C 65 % 1010,2 hPa 0,0 l/m 2 min 0 min 3,8 UV-I 751 W/m 10,3 km/h (2 Bft)
27.05.2013 12:12 17,7 C 25,1 C 64 % 1010,3 hPa 0,0 l/m 2 min 0 min 3,6 UV-I 751 W/m 12,9 km/h (3 Bft)
27.05.2013 12:14 17,6 C 24,0 C 62 % 1010,2 hPa 0,0 l/m 2 min 0 min 3,1 UV-I 571 W/m 10,3 km/h (2 Bft)
27.05.2013 12:16 17,4 C 22,9 C 62 % 1010,2 hPa 0,0 l/m 2 min 0 min 3,7 UV-I 656 W/m 12,9 km/h (3 Bft)
27.05.2013 12:18 17,3 C 22,9 C 62 % 1010,2 hPa 0,0 l/m 2 min 0 min 3,2 UV-I 536 W/m 12,9 km/h (3 Bft)
27.05.2013 12:20 17,3 C 23,4 C 64 % 1010,2 hPa 0,0 l/m 2 min 0 min 3,8 UV-I 536 W/m 15,4 km/h (3 Bft)
27.05.2013 12:22 17,4 C 25,1 C 64 % 1010,2 hPa 0,0 l/m 2 min 0 min 4,3 UV-I 914 W/m 23,2 km/h (4 Bft)
27.05.2013 12:24 17,3 C 25,7 C 61 % 1010,2 hPa 0,0 l/m 2 min 0 min 4,5 UV-I 930 W/m 15,4 km/h (3 Bft)
27.05.2013 12:26 17,5 C 26,2 C 63 % 1010,1 hPa 0,0 l/m 2 min 0 min 4,3 UV-I 916 W/m 10,3 km/h (2 Bft)
27.05.2013 12:28 17,5 C 25,7 C 60 % 1010,1 hPa 0,0 l/m 2 min 0 min 4,3 UV-I 907 W/m 12,9 km/h (3 Bft)
27.05.2013 12:30 17,7 C 26,2 C 62 % 1010,1 hPa 0,0 l/m 2 min 0 min 4,4 UV-I 911 W/m 18,0 km/h (3 Bft)
27.05.2013 12:32 17,8 C 26,2 C 60 % 1010,1 hPa 0,0 l/m 2 min 0 min 4,4 UV-I 937 W/m 15,4 km/h (3 Bft)
27.05.2013 12:34 17,9 C 26,2 C 60 % 1010,1 hPa 0,0 l/m 2 min 0 min 4,3 UV-I 932 W/m 7,7 km/h (2 Bft)
27.05.2013 12:36 18,1 C 26,2 C 61 % 1010,0 hPa 0,0 l/m 2 min 0 min 4,5 UV-I 946 W/m 18,0 km/h (3 Bft)
27.05.2013 12:38 18,2 C 26,8 C 60 % 1010,0 hPa 0,0 l/m 2 min 0 min 4,5 UV-I 977 W/m 7,7 km/h (2 Bft)
27.05.2013 12:40 18,3 C 26,8 C 59 % 1010,1 hPa 0,0 l/m 2 min 0 min 4,6 UV-I 983 W/m 15,4 km/h (3 Bft)
27.05.2013 12:42 18,4 C 27,3 C 57 % 1010,0 hPa 0,0 l/m 2 min 0 min 4,6 UV-I 986 W/m 20,6 km/h (4 Bft)
27.05.2013 12:44 18,5 C 27,3 C 58 % 1010,0 hPa 0,0 l/m 2 min 0 min 4,8 UV-I 1028 W/m 18,0 km/h (3 Bft)
27.05.2013 12:46 18,7 C 26,8 C 57 % 1010,0 hPa 0,0 l/m 2 min 0 min 4,8 UV-I 1056 W/m 18,0 km/h (3 Bft)
27.05.2013 12:48 18,8 C 27,3 C 53 % 1010,0 hPa 0,0 l/m 2 min 0 min 4,7 UV-I 1063 W/m 12,9 km/h (3 Bft)
27.05.2013 12:50 18,6 C 27,3 C 54 % 1010,0 hPa 0,0 l/m 2 min 0 min 4,5 UV-I 1090 W/m 10,3 km/h (2 Bft)
27.05.2013 12:52 18,6 C 27,3 C 54 % 1010,0 hPa 0,0 l/m 2 min 0 min 3,9 UV-I 977 W/m 15,4 km/h (3 Bft)
27.05.2013 12:54 18,8 C 27,3 C 58 % 1010,0 hPa 0,0 l/m 2 min 0 min 3,2 UV-I 1060 W/m 12,9 km/h (3 Bft)
27.05.2013 12:56 18,7 C 26,2 C 53 % 1010,0 hPa 0,0 l/m 2 min 0 min 3,0 UV-I 809 W/m 12,9 km/h (3 Bft)
27.05.2013 12:58 18,4 C 24,6 C 55 % 1010,0 hPa 0,0 l/m 2 min 0 min 2,6 UV-I 698 W/m 12,9 km/h (3 Bft)
27.05.2013 13:00 18,3 C 24,0 C 57 % 1010,0 hPa 0,0 l/m 2 min 0 min 2,4 UV-I 638 W/m 15,4 km/h (3 Bft)
27.05.2013 13:02 18,2 C 23,4 C 55 % 1010,0 hPa 0,0 l/m 2 min 0 min 2,4 UV-I 701 W/m 10,3 km/h (2 Bft)
27.05.2013 13:04 18,2 C 24,6 C 57 % 1009,9 hPa 0,0 l/m 2 min 0 min 2,4 UV-I 874 W/m 10,3 km/h (2 Bft)
27.05.2013 13:06 18,2 C 24,6 C 58 % 1010,0 hPa 0,0 l/m 2 min 0 min 2,3 UV-I 738 W/m 12,9 km/h (3 Bft)
27.05.2013 13:08 18,3 C 24,0 C 56 % 1010,0 hPa 0,0 l/m 2 min 0 min 2,2 UV-I 534 W/m 7,7 km/h (2 Bft)
27.05.2013 13:10 18,1 C 22,9 C 55 % 1010,0 hPa 0,0 l/m 0 min 0 min 2,1 UV-I 457 W/m 10,3 km/h (2 Bft)
27.05.2013 13:12 18,0 C 22,9 C 55 % 1010,1 hPa 0,0 l/m 2 min 0 min 2,0 UV-I 548 W/m 12,9 km/h (3 Bft)
27.05.2013 13:14 18,1 C 23,4 C 56 % 1010,0 hPa 0,0 l/m 2 min 0 min 2,0 UV-I 682 W/m 12,9 km/h (3 Bft)
27.05.2013 13:16 18,1 C 24,6 C 54 % 1010,0 hPa 0,0 l/m 2 min 0 min 2,0 UV-I 898 W/m 10,3 km/h (2 Bft)
27.05.2013 13:18 18,1 C 25,1 C 56 % 1010,0 hPa 0,0 l/m 2 min 0 min 2,0 UV-I 914 W/m 15,4 km/h (3 Bft)
27.05.2013 13:20 18,4 C 26,2 C 55 % 1010,0 hPa 0,0 l/m 2 min 0 min 2,0 UV-I 895 W/m 18,0 km/h (3 Bft)
27.05.2013 13:22 18,5 C 26,8 C 53 % 1010,1 hPa 0,0 l/m 2 min 0 min 2,0 UV-I 882 W/m 15,4 km/h (3 Bft)
27.05.2013 13:24 18,7 C 26,8 C 52 % 1010,1 hPa 0,0 l/m 2 min 0 min 2,0 UV-I 872 W/m 12,9 km/h (3 Bft)
27.05.2013 13:26 18,7 C 26,8 C 56 % 1010,0 hPa 0,0 l/m 2 min 0 min 2,1 UV-I 868 W/m 7,7 km/h (2 Bft)
27.05.2013 13:28 19,0 C 27,9 C 56 % 1009,9 hPa 0,0 l/m 2 min 0 min 2,1 UV-I 863 W/m 2,6 km/h (1 Bft)
27.05.2013 13:30 19,3 C 27,9 C 58 % 1009,9 hPa 0,0 l/m 2 min 0 min 2,2 UV-I 858 W/m 2,6 km/h (1 Bft)
27.05.2013 13:32 19,5 C 27,3 C 55 % 1009,9 hPa 0,0 l/m 2 min 0 min 2,2 UV-I 868 W/m 10,3 km/h (2 Bft)
27.05.2013 13:34 19,2 C 26,8 C 51 % 1009,8 hPa 0,0 l/m 2 min 0 min 2,3 UV-I 900 W/m 18,0 km/h (3 Bft)
27.05.2013 13:36 18,9 C 26,2 C 55 % 1009,8 hPa 0,0 l/m 2 min 0 min 2,4 UV-I 889 W/m 12,9 km/h (3 Bft)
27.05.2013 13:38 18,8 C 25,7 C 57 % 1009,8 hPa 0,0 l/m 2 min 0 min 2,5 UV-I 900 W/m 15,4 km/h (3 Bft)
27.05.2013 13:40 18,9 C 25,1 C 58 % 1009,8 hPa 0,0 l/m 2 min 0 min 2,9 UV-I 891 W/m 10,3 km/h (2 Bft)
27.05.2013 13:42 18,9 C 22,9 C 55 % 1009,7 hPa 0,0 l/m 2 min 0 min 3,1 UV-I 863 W/m 18,0 km/h (3 Bft)
27.05.2013 13:44 18,9 C 21,8 C 56 % 1009,8 hPa 0,0 l/m 2 min 0 min 3,5 UV-I 891 W/m 7,7 km/h (2 Bft)
27.05.2013 13:46 18,9 C 21,8 C 53 % 1009,7 hPa 0,0 l/m 2 min 0 min 3,9 UV-I 895 W/m 18,0 km/h (3 Bft)
27.05.2013 13:48 18,6 C 20,7 C 55 % 1009,7 hPa 0,0 l/m 2 min 0 min 2,4 UV-I 907 W/m 15,4 km/h (3 Bft)
27.05.2013 13:50 18,7 C 20,1 C 57 % 1009,6 hPa 0,0 l/m 0 min 0 min 3,0 UV-I 257 W/m 10,3 km/h (2 Bft)
27.05.2013 13:52 18,6 C 20,1 C 59 % 1009,6 hPa 0,0 l/m 0 min 0 min 3,4 UV-I 279 W/m 15,4 km/h (3 Bft)
27.05.2013 13:54 18,4 C 19,6 C 58 % 1009,5 hPa 0,0 l/m 0 min 0 min 1,7 UV-I 179 W/m 7,7 km/h (2 Bft)
27.05.2013 13:56 18,2 C 18,4 C 57 % 1009,6 hPa 0,0 l/m 0 min 0 min 2,0 UV-I 206 W/m 15,4 km/h (3 Bft)
27.05.2013 13:58 18,0 C 18,4 C 59 % 1009,6 hPa 0,0 l/m 0 min 0 min 2,3 UV-I 206 W/m 2,6 km/h (1 Bft)
27.05.2013 14:00 18,2 C 19,6 C 60 % 1009,6 hPa 0,0 l/m 2 min 0 min 4,4 UV-I 940 W/m 5,1 km/h (1 Bft)
27.05.2013 14:02 18,5 C 20,1 C 55 % 1009,6 hPa 0,0 l/m 2 min 0 min 4,5 UV-I 947 W/m 10,3 km/h (2 Bft)
27.05.2013 14:04 19,0 C 21,2 C 60 % 1009,5 hPa 0,0 l/m 2 min 0 min 4,4 UV-I 954 W/m 12,9 km/h (3 Bft)
27.05.2013 14:06 19,1 C 21,2 C 55 % 1009,5 hPa 0,0 l/m 2 min 0 min 4,2 UV-I 946 W/m 15,4 km/h (3 Bft)
27.05.2013 14:08 19,2 C 21,8 C 54 % 1009,4 hPa 0,0 l/m 2 min 0 min 4,3 UV-I 761 W/m 12,9 km/h (3 Bft)
27.05.2013 14:10 19,4 C 21,8 C 53 % 1009,4 hPa 0,0 l/m 2 min 0 min 4,4 UV-I 951 W/m 12,9 km/h (3 Bft)
27.05.2013 14:12 19,4 C 21,8 C 55 % 1009,3 hPa 0,0 l/m 2 min 0 min 4,3 UV-I 930 W/m 18,0 km/h (3 Bft)
27.05.2013 14:14 19,6 C 21,8 C 56 % 1009,4 hPa 0,0 l/m 2 min 0 min 4,4 UV-I 942 W/m 10,3 km/h (2 Bft)
27.05.2013 14:16 19,7 C 22,3 C 50 % 1009,5 hPa 0,0 l/m 2 min 0 min 4,4 UV-I 944 W/m 10,3 km/h (2 Bft)
27.05.2013 14:18 19,4 C 21,8 C 51 % 1009,4 hPa 0,0 l/m 2 min 0 min 4,4 UV-I 940 W/m 10,3 km/h (2 Bft)
27.05.2013 14:20 19,4 C 21,8 C 55 % 1009,4 hPa 0,0 l/m 2 min 0 min 3,3 UV-I 921 W/m 7,7 km/h (2 Bft)
27.05.2013 14:22 19,5 C 21,8 C 54 % 1009,4 hPa 0,0 l/m 2 min 0 min 4,0 UV-I 921 W/m 10,3 km/h (2 Bft)
27.05.2013 14:24 19,6 C 22,3 C 52 % 1009,3 hPa 0,0 l/m 2 min 0 min 4,2 UV-I 884 W/m 7,7 km/h (2 Bft)
27.05.2013 14:26 19,6 C 21,8 C 52 % 1009,3 hPa 0,0 l/m 2 min 0 min 4,1 UV-I 874 W/m 18,0 km/h (3 Bft)
27.05.2013 14:28 19,3 C 21,2 C 49 % 1009,3 hPa 0,0 l/m 2 min 0 min 4,4 UV-I 907 W/m 18,0 km/h (3 Bft)
27.05.2013 14:30 19,4 C 21,8 C 54 % 1009,3 hPa 0,0 l/m 2 min 0 min 4,3 UV-I 877 W/m 7,7 km/h (2 Bft)
27.05.2013 14:32 19,4 C 21,8 C 49 % 1009,2 hPa 0,0 l/m 2 min 0 min 4,1 UV-I 851 W/m 15,4 km/h (3 Bft)
27.05.2013 14:34 19,4 C 21,8 C 49 % 1009,2 hPa 0,0 l/m 2 min 0 min 4,3 UV-I 881 W/m 10,3 km/h (2 Bft)
27.05.2013 14:36 19,3 C 21,2 C 51 % 1009,2 hPa 0,0 l/m 2 min 0 min 4,3 UV-I 879 W/m 10,3 km/h (2 Bft)
27.05.2013 14:38 19,6 C 22,3 C 49 % 1009,2 hPa 0,0 l/m 2 min 0 min 4,0 UV-I 874 W/m 12,9 km/h (3 Bft)
27.05.2013 14:40 19,8 C 21,8 C 50 % 1009,3 hPa 0,0 l/m 2 min 0 min 4,0 UV-I 874 W/m 15,4 km/h (3 Bft)
27.05.2013 14:42 19,6 C 21,8 C 52 % 1009,3 hPa 0,0 l/m 2 min 0 min 4,0 UV-I 879 W/m 12,9 km/h (3 Bft)
27.05.2013 14:44 19,6 C 21,2 C 50 % 1009,3 hPa 0,0 l/m 2 min 0 min 4,0 UV-I 879 W/m 12,9 km/h (3 Bft)
27.05.2013 14:46 19,6 C 21,8 C 56 % 1009,3 hPa 0,0 l/m 2 min 0 min 3,8 UV-I 886 W/m 5,1 km/h (1 Bft)
27.05.2013 14:48 19,8 C 21,8 C 51 % 1009,3 hPa 0,0 l/m 2 min 0 min 2,2 UV-I 875 W/m 15,4 km/h (3 Bft)
27.05.2013 14:50 19,4 C 21,2 C 49 % 1009,3 hPa 0,0 l/m 0 min 0 min 3,7 UV-I 369 W/m 15,4 km/h (3 Bft)
27.05.2013 14:52 19,1 C 20,7 C 51 % 1009,3 hPa 0,0 l/m 0 min 0 min 2,0 UV-I 369 W/m 15,4 km/h (3 Bft)
27.05.2013 14:54 18,9 C 20,1 C 52 % 1009,3 hPa 0,0 l/m 0 min 0 min 3,3 UV-I 197 W/m 2,6 km/h (1 Bft)
27.05.2013 14:56 19,0 C 20,1 C 55 % 1009,3 hPa 0,0 l/m 0 min 0 min 3,5 UV-I 197 W/m 5,1 km/h (1 Bft)
27.05.2013 14:58 19,1 C 20,1 C 56 % 1009,3 hPa 0,0 l/m 2 min 0 min 3,0 UV-I 809 W/m 7,7 km/h (2 Bft)
27.05.2013 15:00 19,3 C 20,7 C 54 % 1009,4 hPa 0,0 l/m 2 min 0 min 3,6 UV-I 821 W/m 18,0 km/h (3 Bft)
27.05.2013 15:02 19,4 C 20,7 C 50 % 1009,3 hPa 0,0 l/m 2 min 0 min 3,8 UV-I 821 W/m 10,3 km/h (2 Bft)
27.05.2013 15:04 19,6 C 20,7 C 49 % 1009,3 hPa 0,0 l/m 2 min 0 min 4,0 UV-I 861 W/m 12,9 km/h (3 Bft)
27.05.2013 15:06 19,6 C 20,7 C 51 % 1009,3 hPa 0,0 l/m 2 min 0 min 3,8 UV-I 835 W/m 12,9 km/h (3 Bft)
27.05.2013 15:08 19,8 C 21,2 C 51 % 1009,3 hPa 0,0 l/m 2 min 0 min 3,8 UV-I 828 W/m 12,9 km/h (3 Bft)
27.05.2013 15:10 19,8 C 21,2 C 50 % 1009,3 hPa 0,0 l/m 2 min 0 min 3,7 UV-I 814 W/m 12,9 km/h (3 Bft)
27.05.2013 15:12 19,9 C 21,2 C 48 % 1009,3 hPa 0,0 l/m 2 min 0 min 3,7 UV-I 812 W/m 12,9 km/h (3 Bft)
27.05.2013 15:14 19,8 C 21,2 C 50 % 1009,2 hPa 0,0 l/m 2 min 0 min 3,8 UV-I 809 W/m 7,7 km/h (2 Bft)
27.05.2013 15:16 19,8 C 20,7 C 48 % 1009,3 hPa 0,0 l/m 2 min 0 min 3,7 UV-I 809 W/m 7,7 km/h (2 Bft)
27.05.2013 15:18 19,9 C 21,8 C 52 % 1009,2 hPa 0,0 l/m 2 min 0 min 3,5 UV-I 784 W/m 7,7 km/h (2 Bft)
27.05.2013 15:20 19,8 C 21,8 C 47 % 1009,2 hPa 0,0 l/m 2 min 0 min 3,5 UV-I 779 W/m 12,9 km/h (3 Bft)
27.05.2013 15:22 19,8 C 21,2 C 50 % 1009,2 hPa 0,0 l/m 2 min 0 min 3,6 UV-I 798 W/m 12,9 km/h (3 Bft)
27.05.2013 15:24 19,6 C 21,2 C 46 % 1009,2 hPa 0,0 l/m 2 min 0 min 3,4 UV-I 759 W/m 20,6 km/h (4 Bft)
27.05.2013 15:26 19,4 C 20,7 C 46 % 1009,1 hPa 0,0 l/m 2 min 0 min 3,3 UV-I 770 W/m 18,0 km/h (3 Bft)
27.05.2013 15:28 19,5 C 21,2 C 47 % 1009,1 hPa 0,0 l/m 2 min 0 min 3,3 UV-I 751 W/m 18,0 km/h (3 Bft)
27.05.2013 15:30 19,8 C 21,2 C 48 % 1009,2 hPa 0,0 l/m 2 min 0 min 3,6 UV-I 816 W/m 18,0 km/h (3 Bft)
27.05.2013 15:32 19,8 C 21,8 C 46 % 1009,2 hPa 0,0 l/m 2 min 0 min 3,4 UV-I 803 W/m 15,4 km/h (3 Bft)
27.05.2013 15:34 19,7 C 21,2 C 47 % 1009,2 hPa 0,0 l/m 2 min 0 min 2,1 UV-I 796 W/m 10,3 km/h (2 Bft)
27.05.2013 15:36 19,5 C 20,7 C 46 % 1009,2 hPa 0,0 l/m 2 min 0 min 1,7 UV-I 796 W/m 15,4 km/h (3 Bft)
27.05.2013 15:38 19,2 C 20,1 C 49 % 1009,1 hPa 0,0 l/m 0 min 0 min 2,6 UV-I 200 W/m 12,9 km/h (3 Bft)
27.05.2013 15:40 19,2 C 19,6 C 48 % 1009,1 hPa 0,0 l/m 0 min 0 min 1,9 UV-I 227 W/m 7,7 km/h (2 Bft)
27.05.2013 15:42 19,3 C 20,7 C 50 % 1009,1 hPa 0,0 l/m 2 min 0 min 3,2 UV-I 819 W/m 7,7 km/h (2 Bft)
27.05.2013 15:44 19,3 C 21,2 C 48 % 1009,1 hPa 0,0 l/m 2 min 0 min 3,1 UV-I 796 W/m 7,7 km/h (2 Bft)
27.05.2013 15:46 19,4 C 21,8 C 49 % 1009,0 hPa 0,0 l/m 2 min 0 min 3,1 UV-I 791 W/m 12,9 km/h (3 Bft)
27.05.2013 15:48 19,3 C 22,3 C 46 % 1009,1 hPa 0,0 l/m 2 min 0 min 3,0 UV-I 754 W/m 12,9 km/h (3 Bft)
27.05.2013 15:50 19,7 C 21,8 C 52 % 1009,1 hPa 0,0 l/m 2 min 0 min 3,0 UV-I 772 W/m 2,6 km/h (1 Bft)
27.05.2013 15:52 20,2 C 22,3 C 51 % 1009,1 hPa 0,0 l/m 2 min 0 min 3,0 UV-I 745 W/m 5,1 km/h (1 Bft)
27.05.2013 15:54 20,1 C 21,8 C 48 % 1009,1 hPa 0,0 l/m 2 min 0 min 3,1 UV-I 795 W/m 5,1 km/h (1 Bft)
27.05.2013 15:56 19,9 C 22,3 C 48 % 1009,1 hPa 0,0 l/m 2 min 0 min 3,2 UV-I 803 W/m 15,4 km/h (3 Bft)
27.05.2013 15:58 20,2 C 24,0 C 53 % 1009,1 hPa 0,0 l/m 2 min 0 min 3,1 UV-I 817 W/m 10,3 km/h (2 Bft)
27.05.2013 16:00 20,6 C 25,1 C 48 % 1009,1 hPa 0,0 l/m 2 min 0 min 3,1 UV-I 816 W/m 7,7 km/h (2 Bft)
27.05.2013 16:02 20,6 C 26,2 C 44 % 1009,1 hPa 0,0 l/m 2 min 0 min 2,9 UV-I 814 W/m 2,6 km/h (1 Bft)
27.05.2013 16:04 20,5 C 26,2 C 46 % 1009,1 hPa 0,0 l/m 2 min 0 min 2,8 UV-I 793 W/m 7,7 km/h (2 Bft)
27.05.2013 16:06 20,4 C 26,2 C 46 % 1009,1 hPa 0,0 l/m 2 min 0 min 2,9 UV-I 816 W/m 12,9 km/h (3 Bft)
27.05.2013 16:08 20,4 C 26,8 C 46 % 1009,0 hPa 0,0 l/m 2 min 0 min 2,8 UV-I 800 W/m 10,3 km/h (2 Bft)
27.05.2013 16:10 20,4 C 26,2 C 45 % 1009,0 hPa 0,0 l/m 2 min 0 min 2,4 UV-I 765 W/m 2,6 km/h (1 Bft)
27.05.2013 16:12 20,2 C 26,8 C 45 % 1009,0 hPa 0,0 l/m 2 min 0 min 2,7 UV-I 749 W/m 18,0 km/h (3 Bft)
27.05.2013 16:14 19,8 C 26,8 C 46 % 1009,0 hPa 0,0 l/m 2 min 0 min 2,7 UV-I 745 W/m 12,9 km/h (3 Bft)
27.05.2013 16:16 19,8 C 25,7 C 47 % 1009,1 hPa 0,0 l/m 2 min 0 min 1,7 UV-I 744 W/m 10,3 km/h (2 Bft)
27.05.2013 16:18 19,7 C 23,4 C 50 % 1009,0 hPa 0,0 l/m 0 min 0 min 1,5 UV-I 183 W/m 10,3 km/h (2 Bft)
27.05.2013 16:20 19,6 C 21,8 C 47 % 1009,0 hPa 0,0 l/m 0 min 0 min 1,5 UV-I 185 W/m 15,4 km/h (3 Bft)
27.05.2013 16:22 19,4 C 21,8 C 47 % 1008,9 hPa 0,0 l/m 0 min 0 min 1,8 UV-I 192 W/m 12,9 km/h (3 Bft)
27.05.2013 16:24 19,6 C 22,9 C 51 % 1008,9 hPa 0,0 l/m 2 min 0 min 1,5 UV-I 726 W/m 5,1 km/h (1 Bft)
27.05.2013 16:26 19,8 C 24,6 C 49 % 1008,9 hPa 0,0 l/m 2 min 0 min 2,2 UV-I 700 W/m 10,3 km/h (2 Bft)
27.05.2013 16:28 19,8 C 24,6 C 47 % 1008,8 hPa 0,0 l/m 2 min 0 min 2,1 UV-I 700 W/m 15,4 km/h (3 Bft)
27.05.2013 16:30 19,7 C 25,1 C 47 % 1008,8 hPa 0,0 l/m 2 min 0 min 2,2 UV-I 701 W/m 18,0 km/h (3 Bft)
27.05.2013 16:32 19,6 C 24,6 C 48 % 1008,8 hPa 0,0 l/m 2 min 0 min 2,2 UV-I 715 W/m 20,6 km/h (4 Bft)
27.05.2013 16:34 19,7 C 26,2 C 54 % 1008,7 hPa 0,0 l/m 2 min 0 min 2,2 UV-I 731 W/m 10,3 km/h (2 Bft)
27.05.2013 16:36 19,8 C 25,7 C 48 % 1008,8 hPa 0,0 l/m 2 min 0 min 2,1 UV-I 710 W/m 20,6 km/h (4 Bft)
27.05.2013 16:38 19,8 C 22,9 C 47 % 1008,8 hPa 0,0 l/m 2 min 0 min 2,0 UV-I 714 W/m 15,4 km/h (3 Bft)
27.05.2013 16:40 19,7 C 21,8 C 48 % 1008,8 hPa 0,0 l/m 2 min 0 min 1,6 UV-I 675 W/m 18,0 km/h (3 Bft)
27.05.2013 16:42 19,6 C 21,2 C 48 % 1008,8 hPa 0,0 l/m 2 min 0 min 1,6 UV-I 448 W/m 7,7 km/h (2 Bft)
27.05.2013 16:44 19,4 C 20,1 C 47 % 1008,8 hPa 0,0 l/m 2 min 0 min 1,9 UV-I 506 W/m 12,9 km/h (3 Bft)
27.05.2013 16:46 19,3 C 20,1 C 48 % 1008,7 hPa 0,0 l/m 2 min 0 min 1,3 UV-I 663 W/m 10,3 km/h (2 Bft)
27.05.2013 16:48 19,2 C 20,1 C 47 % 1008,7 hPa 0,0 l/m 0 min 0 min 1,6 UV-I 274 W/m 0,0 km/h (0 Bft)
27.05.2013 16:50 19,2 C 19,6 C 50 % 1008,8 hPa 0,0 l/m 0 min 0 min 1,2 UV-I 190 W/m 0,0 km/h (0 Bft)
27.05.2013 16:52 19,2 C 19,6 C 50 % 1008,7 hPa 0,0 l/m 0 min 0 min 1,1 UV-I 181 W/m 2,6 km/h (1 Bft)
27.05.2013 16:54 19,1 C 19,0 C 50 % 1008,7 hPa 0,0 l/m 0 min 0 min 1,0 UV-I 174 W/m 2,6 km/h (1 Bft)
27.05.2013 16:56 19,1 C 19,0 C 53 % 1008,7 hPa 0,0 l/m 0 min 0 min 1,0 UV-I 171 W/m 0,0 km/h (0 Bft)
27.05.2013 16:58 19,1 C 19,0 C 49 % 1008,7 hPa 0,0 l/m 0 min 0 min 1,2 UV-I 214 W/m 10,3 km/h (2 Bft)
27.05.2013 17:00 19,1 C 19,0 C 50 % 1008,6 hPa 0,0 l/m 0 min 0 min 1,3 UV-I 214 W/m 2,6 km/h (1 Bft)
27.05.2013 17:02 18,9 C 19,0 C 48 % 1008,7 hPa 0,0 l/m 0 min 0 min 0,9 UV-I 195 W/m 12,9 km/h (3 Bft)
27.05.2013 17:04 18,9 C 18,4 C 50 % 1008,7 hPa 0,0 l/m 0 min 0 min 0,9 UV-I 195 W/m 7,7 km/h (2 Bft)
27.05.2013 17:06 18,8 C 18,4 C 48 % 1008,7 hPa 0,0 l/m 0 min 0 min 1,0 UV-I 209 W/m 15,4 km/h (3 Bft)
27.05.2013 17:08 18,9 C 18,4 C 50 % 1008,7 hPa 0,0 l/m 0 min 0 min 0,9 UV-I 192 W/m 7,7 km/h (2 Bft)
27.05.2013 17:10 18,9 C 18,4 C 50 % 1008,7 hPa 0,0 l/m 0 min 0 min 0,8 UV-I 181 W/m 7,7 km/h (2 Bft)
27.05.2013 17:12 19,0 C 18,4 C 49 % 1008,6 hPa 0,0 l/m 0 min 0 min 0,7 UV-I 176 W/m 2,6 km/h (1 Bft)
27.05.2013 17:14 18,9 C 18,4 C 49 % 1008,6 hPa 0,0 l/m 0 min 0 min 0,7 UV-I 183 W/m 0,0 km/h (0 Bft)
27.05.2013 17:16 18,9 C 18,4 C 49 % 1008,6 hPa 0,0 l/m 0 min 0 min 1,0 UV-I 288 W/m 0,0 km/h (0 Bft)
27.05.2013 17:18 19,0 C 18,4 C 49 % 1008,6 hPa 0,0 l/m 2 min 0 min 1,0 UV-I 373 W/m 7,7 km/h (2 Bft)
27.05.2013 17:20 19,1 C 19,0 C 50 % 1008,6 hPa 0,0 l/m 2 min 0 min 1,2 UV-I 427 W/m 5,1 km/h (1 Bft)
27.05.2013 17:22 19,3 C 19,0 C 47 % 1008,6 hPa 0,0 l/m 2 min 0 min 1,0 UV-I 381 W/m 2,6 km/h (1 Bft)
27.05.2013 17:24 19,3 C 19,6 C 46 % 1008,5 hPa 0,0 l/m 2 min 0 min 1,2 UV-I 336 W/m 7,7 km/h (2 Bft)
27.05.2013 17:26 19,3 C 19,6 C 48 % 1008,5 hPa 0,0 l/m 2 min 0 min 1,0 UV-I 529 W/m 10,3 km/h (2 Bft)
27.05.2013 17:28 19,3 C 19,6 C 47 % 1008,6 hPa 0,0 l/m 0 min 0 min 0,8 UV-I 181 W/m 15,4 km/h (3 Bft)
27.05.2013 17:30 19,3 C 19,0 C 48 % 1008,5 hPa 0,0 l/m 0 min 0 min 0,7 UV-I 162 W/m 2,6 km/h (1 Bft)
27.05.2013 17:32 19,2 C 19,0 C 52 % 1008,5 hPa 0,0 l/m 0 min 0 min 0,6 UV-I 153 W/m 0,0 km/h (0 Bft)
27.05.2013 17:34 19,1 C 18,4 C 48 % 1008,6 hPa 0,0 l/m 0 min 0 min 0,6 UV-I 153 W/m 5,1 km/h (1 Bft)
27.05.2013 17:36 18,9 C 18,4 C 47 % 1008,5 hPa 0,0 l/m 0 min 0 min 0,6 UV-I 156 W/m 2,6 km/h (1 Bft)
27.05.2013 17:38 18,7 C 18,4 C 46 % 1008,5 hPa 0,0 l/m 0 min 0 min 0,5 UV-I 156 W/m 0,0 km/h (0 Bft)
27.05.2013 17:40 18,7 C 18,4 C 48 % 1008,5 hPa 0,0 l/m 0 min 0 min 0,5 UV-I 163 W/m 0,0 km/h (0 Bft)
27.05.2013 17:42 18,7 C 17,9 C 48 % 1008,5 hPa 0,0 l/m 0 min 0 min 0,5 UV-I 181 W/m 0,0 km/h (0 Bft)
27.05.2013 17:44 18,7 C 17,9 C 48 % 1008,5 hPa 0,0 l/m 0 min 0 min 0,5 UV-I 185 W/m 2,6 km/h (1 Bft)
27.05.2013 17:46 18,7 C 17,9 C 49 % 1008,5 hPa 0,0 l/m 0 min 0 min 0,5 UV-I 183 W/m 0,0 km/h (0 Bft)
27.05.2013 17:48 18,7 C 17,9 C 49 % 1008,5 hPa 0,0 l/m 0 min 0 min 0,0 UV-I 185 W/m 12,9 km/h (3 Bft)
27.05.2013 17:50 18,7 C 17,9 C 50 % 1008,5 hPa 0,0 l/m 2 min 0 min 0,5 UV-I 381 W/m 2,6 km/h (1 Bft)
27.05.2013 17:52 18,8 C 17,9 C 49 % 1008,4 hPa 0,0 l/m 2 min 0 min 0,6 UV-I 397 W/m 7,7 km/h (2 Bft)
27.05.2013 17:54 18,9 C 17,9 C 49 % 1008,4 hPa 0,0 l/m 0 min 0 min 0,5 UV-I 255 W/m 7,7 km/h (2 Bft)
27.05.2013 17:56 19,0 C 17,9 C 49 % 1008,5 hPa 0,0 l/m 2 min 0 min 0,5 UV-I 362 W/m 7,7 km/h (2 Bft)
27.05.2013 17:58 19,0 C 18,4 C 50 % 1008,5 hPa 0,0 l/m 2 min 0 min 0,0 UV-I 362 W/m 2,6 km/h (1 Bft)
27.05.2013 18:00 19,0 C 18,4 C 50 % 1008,5 hPa 0,0 l/m 0 min 0 min 0,0 UV-I 188 W/m 0,0 km/h (0 Bft)
27.05.2013 18:02 19,0 C 18,4 C 50 % 1008,4 hPa 0,0 l/m 0 min 0 min 0,0 UV-I 195 W/m 0,0 km/h (0 Bft)
27.05.2013 18:04 19,1 C 18,4 C 51 % 1008,5 hPa 0,0 l/m 0 min 0 min 0,5 UV-I 195 W/m 0,0 km/h (0 Bft)
27.05.2013 18:06 19,2 C 18,4 C 48 % 1008,4 hPa 0,0 l/m 2 min 0 min 0,5 UV-I 367 W/m 0,0 km/h (0 Bft)
27.05.2013 18:08 19,2 C 19,0 C 48 % 1008,4 hPa 0,0 l/m 2 min 0 min 0,6 UV-I 461 W/m 5,1 km/h (1 Bft)
27.05.2013 18:10 19,2 C 18,4 C 47 % 1008,4 hPa 0,0 l/m 2 min 0 min 0,5 UV-I 480 W/m 7,7 km/h (2 Bft)
27.05.2013 18:12 19,3 C 19,0 C 47 % 1008,4 hPa 0,0 l/m 2 min 0 min 0,0 UV-I 485 W/m 2,6 km/h (1 Bft)
27.05.2013 18:14 19,3 C 19,0 C 47 % 1008,3 hPa 0,0 l/m 0 min 0 min 0,0 UV-I 241 W/m 2,6 km/h (1 Bft)
27.05.2013 18:16 19,3 C 19,0 C 48 % 1008,4 hPa 0,0 l/m 0 min 0 min 0,0 UV-I 218 W/m 0,0 km/h (0 Bft)
27.05.2013 18:18 19,3 C 19,0 C 47 % 1008,3 hPa 0,0 l/m 2 min 0 min 0,0 UV-I 258 W/m 0,0 km/h (0 Bft)
27.05.2013 18:20 19,2 C 18,4 C 46 % 1008,3 hPa 0,0 l/m 0 min 0 min 0,0 UV-I 169 W/m 0,0 km/h (0 Bft)
27.05.2013 18:22 19,1 C 18,4 C 46 % 1008,3 hPa 0,0 l/m 0 min 0 min 0,0 UV-I 162 W/m 0,0 km/h (0 Bft)
27.05.2013 18:24 19,0 C 18,4 C 50 % 1008,3 hPa 0,0 l/m 0 min 0 min 0,0 UV-I 188 W/m 2,6 km/h (1 Bft)
27.05.2013 18:26 19,0 C 18,4 C 49 % 1008,3 hPa 0,0 l/m 0 min 0 min 0,0 UV-I 174 W/m 0,0 km/h (0 Bft)
27.05.2013 18:28 18,9 C 18,4 C 46 % 1008,3 hPa 0,0 l/m 0 min 0 min 0,0 UV-I 178 W/m 0,0 km/h (0 Bft)
27.05.2013 18:30 18,9 C 18,4 C 47 % 1008,3 hPa 0,0 l/m 0 min 0 min 0,0 UV-I 178 W/m 0,0 km/h (0 Bft)
27.05.2013 18:32 18,9 C 18,4 C 49 % 1008,3 hPa 0,0 l/m 0 min 0 min 0,0 UV-I 225 W/m 0,0 km/h (0 Bft)
27.05.2013 18:34 18,9 C 18,4 C 48 % 1008,3 hPa 0,0 l/m 0 min 0 min 0,0 UV-I 162 W/m 7,7 km/h (2 Bft)
27.05.2013 18:36 19,0 C 18,4 C 49 % 1008,3 hPa 0,0 l/m 0 min 0 min 0,0 UV-I 156 W/m 0,0 km/h (0 Bft)
27.05.2013 18:38 19,0 C 18,4 C 51 % 1008,2 hPa 0,0 l/m 0 min 0 min 0,0 UV-I 139 W/m 0,0 km/h (0 Bft)
27.05.2013 18:40 18,9 C 17,9 C 49 % 1008,2 hPa 0,0 l/m 0 min 0 min 0,0 UV-I 132 W/m 0,0 km/h (0 Bft)
27.05.2013 18:42 18,9 C 17,9 C 51 % 1008,2 hPa 0,0 l/m 0 min 0 min 0,0 UV-I 123 W/m 0,0 km/h (0 Bft)
27.05.2013 18:44 18,8 C 17,9 C 48 % 1008,2 hPa 0,0 l/m 0 min 0 min 0,0 UV-I 125 W/m 7,7 km/h (2 Bft)
27.05.2013 18:46 18,8 C 17,9 C 48 % 1008,2 hPa 0,0 l/m 0 min 0 min 0,0 UV-I 127 W/m 7,7 km/h (2 Bft)
27.05.2013 18:48 18,7 C 17,9 C 47 % 1008,2 hPa 0,0 l/m 0 min 0 min 0,0 UV-I 125 W/m 7,7 km/h (2 Bft)
27.05.2013 18:50 18,7 C 17,9 C 49 % 1008,2 hPa 0,0 l/m 0 min 0 min 0,0 UV-I 121 W/m 0,0 km/h (0 Bft)
27.05.2013 18:52 18,6 C 17,9 C 51 % 1008,3 hPa 0,0 l/m 0 min 0 min 0,0 UV-I 114 W/m 0,0 km/h (0 Bft)
27.05.2013 18:54 18,6 C 17,9 C 49 % 1008,3 hPa 0,0 l/m 0 min 0 min 0,0 UV-I 104 W/m 0,0 km/h (0 Bft)
27.05.2013 18:56 18,6 C 17,3 C 51 % 1008,2 hPa 0,0 l/m 0 min 0 min 0,0 UV-I 100 W/m 0,0 km/h (0 Bft)
27.05.2013 18:58 18,5 C 17,3 C 48 % 1008,3 hPa 0,0 l/m 0 min 0 min 0,0 UV-I 107 W/m 0,0 km/h (0 Bft)
27.05.2013 19:00 18,5 C 17,3 C 51 % 1008,3 hPa 0,0 l/m 0 min 0 min 0,0 UV-I 93 W/m 0,0 km/h (0 Bft)
27.05.2013 19:02 18,5 C 17,3 C 49 % 1008,3 hPa 0,0 l/m 0 min 0 min 0,0 UV-I 90 W/m 2,6 km/h (1 Bft)
27.05.2013 19:04 18,6 C 17,3 C 47 % 1008,3 hPa 0,0 l/m 0 min 0 min 0,0 UV-I 90 W/m 0,0 km/h (0 Bft)
27.05.2013 19:06 18,6 C 17,3 C 47 % 1008,3 hPa 0,0 l/m 0 min 0 min 0,0 UV-I 90 W/m 0,0 km/h (0 Bft)
27.05.2013 19:08 18,6 C 16,8 C 52 % 1008,2 hPa 0,0 l/m 0 min 0 min 0,0 UV-I 98 W/m 0,0 km/h (0 Bft)
27.05.2013 19:10 18,6 C 16,8 C 50 % 1008,3 hPa 0,0 l/m 0 min 0 min 0,0 UV-I 91 W/m 0,0 km/h (0 Bft)
27.05.2013 19:12 18,6 C 16,8 C 48 % 1008,2 hPa 0,0 l/m 0 min 0 min 0,0 UV-I 97 W/m 0,0 km/h (0 Bft)
27.05.2013 19:14 18,6 C 17,3 C 50 % 1008,2 hPa 0,0 l/m 0 min 0 min 0,0 UV-I 104 W/m 0,0 km/h (0 Bft)
27.05.2013 19:16 18,6 C 17,3 C 50 % 1008,1 hPa 0,0 l/m 0 min 0 min 0,0 UV-I 107 W/m 0,0 km/h (0 Bft)
27.05.2013 19:18 18,6 C 17,3 C 50 % 1008,1 hPa 0,0 l/m 0 min 0 min 0,0 UV-I 107 W/m 0,0 km/h (0 Bft)
27.05.2013 19:20 18,7 C 17,3 C 50 % 1008,1 hPa 0,0 l/m 0 min 0 min 0,0 UV-I 104 W/m 0,0 km/h (0 Bft)
27.05.2013 19:22 18,7 C 17,3 C 50 % 1008,0 hPa 0,0 l/m 0 min 0 min 0,0 UV-I 102 W/m 0,0 km/h (0 Bft)
27.05.2013 19:24 18,7 C 17,3 C 50 % 1008,0 hPa 0,0 l/m 0 min 0 min 0,0 UV-I 107 W/m 0,0 km/h (0 Bft)
27.05.2013 19:26 18,7 C 17,3 C 51 % 1008,0 hPa 0,0 l/m 0 min 0 min 0,0 UV-I 111 W/m 0,0 km/h (0 Bft)
27.05.2013 19:28 18,7 C 17,3 C 51 % 1008,1 hPa 0,0 l/m 0 min 0 min 0,0 UV-I 114 W/m 2,6 km/h (1 Bft)
27.05.2013 19:30 18,7 C 17,3 C 51 % 1008,1 hPa 0,0 l/m 0 min 0 min 0,0 UV-I 113 W/m 0,0 km/h (0 Bft)
27.05.2013 19:32 18,7 C 17,3 C 51 % 1008,1 hPa 0,0 l/m 0 min 0 min 0,0 UV-I 109 W/m 0,0 km/h (0 Bft)
27.05.2013 19:34 18,7 C 17,3 C 50 % 1008,1 hPa 0,0 l/m 0 min 0 min 0,0 UV-I 105 W/m 7,7 km/h (2 Bft)
27.05.2013 19:36 18,7 C 17,3 C 49 % 1008,1 hPa 0,0 l/m 0 min 0 min 0,0 UV-I 104 W/m 0,0 km/h (0 Bft)
27.05.2013 19:38 18,7 C 17,3 C 51 % 1008,1 hPa 0,0 l/m 0 min 0 min 0,0 UV-I 102 W/m 0,0 km/h (0 Bft)
27.05.2013 19:40 18,7 C 17,3 C 49 % 1008,1 hPa 0,0 l/m 0 min 0 min 0,0 UV-I 95 W/m 0,0 km/h (0 Bft)
27.05.2013 19:42 18,7 C 17,3 C 50 % 1008,1 hPa 0,0 l/m 0 min 0 min 0,0 UV-I 84 W/m 2,6 km/h (1 Bft)
27.05.2013 19:44 18,6 C 16,8 C 51 % 1008,1 hPa 0,0 l/m 0 min 0 min 0,0 UV-I 79 W/m 0,0 km/h (0 Bft)
27.05.2013 19:46 18,6 C 16,8 C 51 % 1008,1 hPa 0,0 l/m 0 min 0 min 0,0 UV-I 69 W/m 0,0 km/h (0 Bft)
27.05.2013 19:48 18,5 C 16,8 C 52 % 1008,1 hPa 0,0 l/m 0 min 0 min 0,0 UV-I 65 W/m 0,0 km/h (0 Bft)
27.05.2013 19:50 18,5 C 16,2 C 51 % 1008,0 hPa 0,0 l/m 0 min 0 min 0,0 UV-I 62 W/m 2,6 km/h (1 Bft)
27.05.2013 19:52 18,5 C 16,2 C 50 % 1008,0 hPa 0,0 l/m 0 min 0 min 0,0 UV-I 62 W/m 2,6 km/h (1 Bft)
27.05.2013 19:54 18,4 C 16,2 C 51 % 1008,0 hPa 0,0 l/m 0 min 0 min 0,0 UV-I 63 W/m 0,0 km/h (0 Bft)
27.05.2013 19:56 18,4 C 16,2 C 52 % 1008,1 hPa 0,0 l/m 0 min 0 min 0,0 UV-I 65 W/m 0,0 km/h (0 Bft)
27.05.2013 19:58 18,4 C 16,2 C 52 % 1008,1 hPa 0,0 l/m 0 min 0 min 0,0 UV-I 63 W/m 0,0 km/h (0 Bft)
27.05.2013 20:00 18,3 C 15,7 C 52 % 1008,0 hPa 0,0 l/m 0 min 0 min 0,0 UV-I 63 W/m 0,0 km/h (0 Bft)
27.05.2013 20:02 18,3 C 15,7 C 51 % 1008,0 hPa 0,0 l/m 0 min 0 min 0,0 UV-I 62 W/m 0,0 km/h (0 Bft)
27.05.2013 20:04 18,3 C 15,7 C 52 % 1008,1 hPa 0,0 l/m 0 min 0 min 0,0 UV-I 60 W/m 0,0 km/h (0 Bft)
27.05.2013 20:06 18,2 C 15,7 C 51 % 1008,0 hPa 0,0 l/m 0 min 0 min 0,0 UV-I 60 W/m 0,0 km/h (0 Bft)
27.05.2013 20:08 18,2 C 15,7 C 50 % 1008,0 hPa 0,0 l/m 0 min 0 min 0,0 UV-I 60 W/m 0,0 km/h (0 Bft)
27.05.2013 20:10 18,2 C 15,7 C 51 % 1008,1 hPa 0,0 l/m 0 min 0 min 0,0 UV-I 60 W/m 0,0 km/h (0 Bft)
27.05.2013 20:12 18,2 C 15,7 C 50 % 1008,0 hPa 0,0 l/m 0 min 0 min 0,0 UV-I 62 W/m 0,0 km/h (0 Bft)
27.05.2013 20:14 18,2 C 15,1 C 51 % 1008,0 hPa 0,0 l/m 0 min 0 min 0,0 UV-I 62 W/m 0,0 km/h (0 Bft)
27.05.2013 20:16 18,1 C 15,1 C 50 % 1008,1 hPa 0,0 l/m 0 min 0 min 0,0 UV-I 62 W/m 0,0 km/h (0 Bft)
27.05.2013 20:18 18,1 C 15,1 C 51 % 1008,0 hPa 0,0 l/m 0 min 0 min 0,0 UV-I 62 W/m 0,0 km/h (0 Bft)
27.05.2013 20:20 18,1 C 15,1 C 50 % 1008,1 hPa 0,0 l/m 0 min 0 min 0,0 UV-I 60 W/m 0,0 km/h (0 Bft)
27.05.2013 20:22 18,1 C 15,7 C 50 % 1008,0 hPa 0,0 l/m 0 min 0 min 0,0 UV-I 58 W/m 0,0 km/h (0 Bft)
27.05.2013 20:24 18,1 C 15,7 C 51 % 1008,0 hPa 0,0 l/m 0 min 0 min 0,0 UV-I 56 W/m 0,0 km/h (0 Bft)
27.05.2013 20:26 18,1 C 15,7 C 49 % 1008,0 hPa 0,0 l/m 0 min 0 min 0,0 UV-I 56 W/m 2,6 km/h (1 Bft)
27.05.2013 20:28 18,1 C 15,7 C 49 % 1008,0 hPa 0,0 l/m 0 min 0 min 0,0 UV-I 54 W/m 0,0 km/h (0 Bft)
27.05.2013 20:30 18,0 C 15,7 C 53 % 1008,0 hPa 0,0 l/m 0 min 0 min 0,0 UV-I 54 W/m 0,0 km/h (0 Bft)
27.05.2013 20:32 17,9 C 15,1 C 52 % 1008,0 hPa 0,0 l/m 0 min 0 min 0,0 UV-I 54 W/m 0,0 km/h (0 Bft)
27.05.2013 20:34 17,8 C 15,1 C 52 % 1008,0 hPa 0,0 l/m 0 min 0 min 0,0 UV-I 51 W/m 0,0 km/h (0 Bft)
27.05.2013 20:36 17,8 C 15,1 C 54 % 1008,0 hPa 0,0 l/m 0 min 0 min 0,0 UV-I 47 W/m 0,0 km/h (0 Bft)
27.05.2013 20:38 17,7 C 14,6 C 54 % 1008,0 hPa 0,0 l/m 0 min 0 min 0,0 UV-I 44 W/m 0,0 km/h (0 Bft)
27.05.2013 20:40 17,6 C 14,6 C 55 % 1007,9 hPa 0,0 l/m 0 min 0 min 0,0 UV-I 40 W/m 0,0 km/h (0 Bft)
27.05.2013 20:42 17,5 C 14,6 C 56 % 1008,0 hPa 0,0 l/m 0 min 0 min 0,0 UV-I 39 W/m 0,0 km/h (0 Bft)
27.05.2013 20:44 17,4 C 14,6 C 58 % 1007,9 hPa 0,0 l/m 0 min 0 min 0,0 UV-I 35 W/m 0,0 km/h (0 Bft)
27.05.2013 20:46 17,3 C 14,0 C 59 % 1007,9 hPa 0,0 l/m 0 min 0 min 0,0 UV-I 33 W/m 0,0 km/h (0 Bft)
27.05.2013 20:48 17,2 C 14,0 C 59 % 1007,9 hPa 0,0 l/m 0 min 0 min 0,0 UV-I 30 W/m 0,0 km/h (0 Bft)
27.05.2013 20:50 17,0 C 14,0 C 60 % 1007,9 hPa 0,0 l/m 0 min 0 min 0,0 UV-I 28 W/m 0,0 km/h (0 Bft)
27.05.2013 20:52 16,9 C 14,0 C 62 % 1007,9 hPa 0,0 l/m 0 min 0 min 0,0 UV-I 26 W/m 0,0 km/h (0 Bft)
27.05.2013 20:54 16,8 C 13,4 C 63 % 1007,9 hPa 0,0 l/m 0 min 0 min 0,0 UV-I 23 W/m 0,0 km/h (0 Bft)
27.05.2013 20:56 16,7 C 13,4 C 62 % 1007,9 hPa 0,0 l/m 0 min 0 min 0,0 UV-I 21 W/m 0,0 km/h (0 Bft)
27.05.2013 20:58 16,7 C 13,4 C 61 % 1007,9 hPa 0,0 l/m 0 min 0 min 0,0 UV-I 18 W/m 0,0 km/h (0 Bft)
27.05.2013 21:00 16,7 C 12,9 C 61 % 1007,8 hPa 0,0 l/m 0 min 0 min 0,0 UV-I 16 W/m 0,0 km/h (0 Bft)
27.05.2013 21:02 16,7 C 12,9 C 61 % 1007,9 hPa 0,0 l/m 0 min 0 min 0,0 UV-I 16 W/m 0,0 km/h (0 Bft)
27.05.2013 21:04 16,7 C 12,9 C 61 % 1007,9 hPa 0,0 l/m 0 min 0 min 0,0 UV-I 14 W/m 0,0 km/h (0 Bft)
27.05.2013 21:06 16,7 C 12,9 C 60 % 1007,9 hPa 0,0 l/m 0 min 0 min 0,0 UV-I 14 W/m 0,0 km/h (0 Bft)
27.05.2013 21:08 16,6 C 12,3 C 60 % 1007,9 hPa 0,0 l/m 0 min 0 min 0,0 UV-I 14 W/m 0,0 km/h (0 Bft)
27.05.2013 21:10 16,6 C 12,3 C 60 % 1007,9 hPa 0,0 l/m 0 min 0 min 0,0 UV-I 12 W/m 0,0 km/h (0 Bft)
27.05.2013 21:12 16,6 C 12,3 C 61 % 1007,9 hPa 0,0 l/m 0 min 0 min 0,0 UV-I 12 W/m 0,0 km/h (0 Bft)
27.05.2013 21:14 16,6 C 12,3 C 61 % 1007,9 hPa 0,0 l/m 0 min 0 min 0,0 UV-I 14 W/m 0,0 km/h (0 Bft)
27.05.2013 21:16 16,5 C 12,3 C 61 % 1007,9 hPa 0,0 l/m 0 min 0 min 0,0 UV-I 12 W/m 0,0 km/h (0 Bft)
27.05.2013 21:18 16,4 C 12,3 C 63 % 1007,8 hPa 0,0 l/m 0 min 0 min 0,0 UV-I 11 W/m 0,0 km/h (0 Bft)
27.05.2013 21:20 16,4 C 11,8 C 63 % 1007,8 hPa 0,0 l/m 0 min 0 min 0,0 UV-I 9 W/m 0,0 km/h (0 Bft)
27.05.2013 21:22 16,4 C 11,8 C 63 % 1007,8 hPa 0,0 l/m 0 min 0 min 0,0 UV-I 9 W/m 0,0 km/h (0 Bft)
27.05.2013 21:24 16,4 C 11,8 C 63 % 1007,9 hPa 0,0 l/m 0 min 0 min 0,0 UV-I 7 W/m 0,0 km/h (0 Bft)
27.05.2013 21:26 16,3 C 11,8 C 64 % 1007,8 hPa 0,0 l/m 0 min 0 min 0,0 UV-I 7 W/m 0,0 km/h (0 Bft)
27.05.2013 21:28 16,3 C 11,8 C 64 % 1007,9 hPa 0,0 l/m 0 min 0 min 0,0 UV-I 7 W/m 0,0 km/h (0 Bft)
27.05.2013 21:30 16,2 C 11,8 C 64 % 1007,9 hPa 0,0 l/m 0 min 0 min 0,0 UV-I 5 W/m 0,0 km/h (0 Bft)
27.05.2013 21:32 16,1 C 11,2 C 65 % 1007,8 hPa 0,0 l/m 0 min 0 min 0,0 UV-I 5 W/m 0,0 km/h (0 Bft)
27.05.2013 21:34 16,1 C 11,2 C 65 % 1007,9 hPa 0,0 l/m 0 min 0 min 0,0 UV-I 5 W/m 0,0 km/h (0 Bft)
27.05.2013 21:36 15,9 C 11,2 C 65 % 1007,9 hPa 0,0 l/m 0 min 0 min 0,0 UV-I 5 W/m 0,0 km/h (0 Bft)
27.05.2013 21:38 15,8 C 11,2 C 66 % 1007,9 hPa 0,0 l/m 0 min 0 min 0,0 UV-I 0 W/m 0,0 km/h (0 Bft)
27.05.2013 21:40 15,8 C 11,2 C 66 % 1007,9 hPa 0,0 l/m 0 min 0 min 0,0 UV-I 0 W/m 0,0 km/h (0 Bft)
27.05.2013 21:42 15,7 C 11,2 C 67 % 1007,9 hPa 0,0 l/m 0 min 0 min 0,0 UV-I 0 W/m 0,0 km/h (0 Bft)
27.05.2013 21:44 15,6 C 11,2 C 67 % 1007,9 hPa 0,0 l/m 0 min 0 min 0,0 UV-I 0 W/m 0,0 km/h (0 Bft)
27.05.2013 21:46 15,6 C 11,2 C 67 % 1007,9 hPa 0,0 l/m 0 min 0 min 0,0 UV-I 0 W/m 0,0 km/h (0 Bft)
27.05.2013 21:48 15,5 C 10,7 C 68 % 1007,9 hPa 0,0 l/m 0 min 0 min 0,0 UV-I 0 W/m 0,0 km/h (0 Bft)
27.05.2013 21:50 15,4 C 10,7 C 68 % 1007,9 hPa 0,0 l/m 0 min 0 min 0,0 UV-I 0 W/m 0,0 km/h (0 Bft)
27.05.2013 21:52 15,3 C 10,7 C 69 % 1007,9 hPa 0,0 l/m 0 min 0 min 0,0 UV-I 0 W/m 0,0 km/h (0 Bft)
27.05.2013 21:54 15,2 C 10,7 C 69 % 1007,9 hPa 0,0 l/m 0 min 0 min 0,0 UV-I 0 W/m 0,0 km/h (0 Bft)
27.05.2013 21:56 15,2 C 10,7 C 70 % 1007,9 hPa 0,0 l/m 0 min 0 min 0,0 UV-I 0 W/m 0,0 km/h (0 Bft)
27.05.2013 21:58 15,1 C 10,7 C 70 % 1007,8 hPa 0,0 l/m 0 min 0 min 0,0 UV-I 0 W/m 0,0 km/h (0 Bft)
27.05.2013 22:00 15,0 C 10,7 C 70 % 1007,8 hPa 0,0 l/m 0 min 0 min 0,0 UV-I 0 W/m 0,0 km/h (0 Bft)
27.05.2013 22:02 14,9 C 10,7 C 70 % 1007,8 hPa 0,0 l/m 0 min 0 min 0,0 UV-I 0 W/m 0,0 km/h (0 Bft)
27.05.2013 22:04 14,8 C 10,7 C 70 % 1007,9 hPa 0,0 l/m 0 min 0 min 0,0 UV-I 0 W/m 0,0 km/h (0 Bft)
27.05.2013 22:06 14,8 C 10,1 C 70 % 1007,8 hPa 0,0 l/m 0 min 0 min 0,0 UV-I 0 W/m 0,0 km/h (0 Bft)
27.05.2013 22:08 14,7 C 10,1 C 71 % 1007,8 hPa 0,0 l/m 0 min 0 min 0,0 UV-I 0 W/m 0,0 km/h (0 Bft)
27.05.2013 22:10 14,6 C 10,1 C 71 % 1007,8 hPa 0,0 l/m 0 min 0 min 0,0 UV-I 0 W/m 0,0 km/h (0 Bft)
27.05.2013 22:12 14,5 C 10,1 C 71 % 1007,8 hPa 0,0 l/m 0 min 0 min 0,0 UV-I 0 W/m 0,0 km/h (0 Bft)
27.05.2013 22:14 14,4 C 10,1 C 72 % 1007,7 hPa 0,0 l/m 0 min 0 min 0,0 UV-I 0 W/m 0,0 km/h (0 Bft)
27.05.2013 22:16 14,3 C 10,1 C 73 % 1007,7 hPa 0,0 l/m 0 min 0 min 0,0 UV-I 0 W/m 0,0 km/h (0 Bft)
27.05.2013 22:18 14,2 C 10,1 C 73 % 1007,8 hPa 0,0 l/m 0 min 0 min 0,0 UV-I 0 W/m 0,0 km/h (0 Bft)
27.05.2013 22:20 14,0 C 10,1 C 73 % 1007,7 hPa 0,0 l/m 0 min 0 min 0,0 UV-I 0 W/m 0,0 km/h (0 Bft)
27.05.2013 22:22 14,0 C 10,1 C 74 % 1007,8 hPa 0,0 l/m 0 min 0 min 0,0 UV-I 0 W/m 0,0 km/h (0 Bft)
27.05.2013 22:24 13,9 C 9,6 C 74 % 1007,7 hPa 0,0 l/m 0 min 0 min 0,0 UV-I 0 W/m 0,0 km/h (0 Bft)
27.05.2013 22:26 13,8 C 9,6 C 74 % 1007,7 hPa 0,0 l/m 0 min 0 min 0,0 UV-I 0 W/m 0,0 km/h (0 Bft)
27.05.2013 22:28 13,8 C 9,6 C 74 % 1007,7 hPa 0,0 l/m 0 min 0 min 0,0 UV-I 0 W/m 0,0 km/h (0 Bft)
27.05.2013 22:30 13,7 C 9,6 C 74 % 1007,7 hPa 0,0 l/m 0 min 0 min 0,0 UV-I 0 W/m 0,0 km/h (0 Bft)
27.05.2013 22:32 13,7 C 9,6 C 74 % 1007,7 hPa 0,0 l/m 0 min 0 min 0,0 UV-I 0 W/m 0,0 km/h (0 Bft)
27.05.2013 22:34 13,6 C 9,6 C 75 % 1007,7 hPa 0,0 l/m 0 min 0 min 0,0 UV-I 0 W/m 0,0 km/h (0 Bft)
27.05.2013 22:36 13,5 C 9,6 C 75 % 1007,7 hPa 0,0 l/m 0 min 0 min 0,0 UV-I 0 W/m 0,0 km/h (0 Bft)
27.05.2013 22:38 13,4 C 9,6 C 76 % 1007,7 hPa 0,0 l/m 0 min 0 min 0,0 UV-I 0 W/m 0,0 km/h (0 Bft)
27.05.2013 22:40 13,3 C 9,6 C 76 % 1007,7 hPa 0,0 l/m 0 min 0 min 0,0 UV-I 0 W/m 0,0 km/h (0 Bft)
27.05.2013 22:42 13,3 C 9,6 C 76 % 1007,7 hPa 0,0 l/m 0 min 0 min 0,0 UV-I 0 W/m 0,0 km/h (0 Bft)
27.05.2013 22:44 13,2 C 9,6 C 76 % 1007,7 hPa 0,0 l/m 0 min 0 min 0,0 UV-I 0 W/m 0,0 km/h (0 Bft)
27.05.2013 22:46 13,1 C 9,6 C 77 % 1007,7 hPa 0,0 l/m 0 min 0 min 0,0 UV-I 0 W/m 0,0 km/h (0 Bft)
27.05.2013 22:48 13,1 C 9,6 C 77 % 1007,7 hPa 0,0 l/m 0 min 0 min 0,0 UV-I 0 W/m 0,0 km/h (0 Bft)
27.05.2013 22:50 13,0 C 9,6 C 77 % 1007,7 hPa 0,0 l/m 0 min 0 min 0,0 UV-I 0 W/m 0,0 km/h (0 Bft)
27.05.2013 22:52 12,9 C 9,0 C 78 % 1007,7 hPa 0,0 l/m 0 min 0 min 0,0 UV-I 0 W/m 0,0 km/h (0 Bft)
27.05.2013 22:54 12,8 C 9,0 C 78 % 1007,7 hPa 0,0 l/m 0 min 0 min 0,0 UV-I 0 W/m 0,0 km/h (0 Bft)
27.05.2013 22:56 12,8 C 9,0 C 78 % 1007,7 hPa 0,0 l/m 0 min 0 min 0,0 UV-I 0 W/m 0,0 km/h (0 Bft)
27.05.2013 22:58 12,7 C 9,0 C 78 % 1007,7 hPa 0,0 l/m 0 min 0 min 0,0 UV-I 0 W/m 0,0 km/h (0 Bft)
27.05.2013 23:00 12,7 C 9,0 C 78 % 1007,7 hPa 0,0 l/m 0 min 0 min 0,0 UV-I 0 W/m 0,0 km/h (0 Bft)
27.05.2013 23:02 12,6 C 9,0 C 78 % 1007,7 hPa 0,0 l/m 0 min 0 min 0,0 UV-I 0 W/m 0,0 km/h (0 Bft)
27.05.2013 23:04 12,6 C 9,0 C 79 % 1007,6 hPa 0,0 l/m 0 min 0 min 0,0 UV-I 0 W/m 0,0 km/h (0 Bft)
27.05.2013 23:06 12,5 C 9,0 C 79 % 1007,7 hPa 0,0 l/m 0 min 0 min 0,0 UV-I 0 W/m 0,0 km/h (0 Bft)
27.05.2013 23:08 12,4 C 9,0 C 79 % 1007,6 hPa 0,0 l/m 0 min 0 min 0,0 UV-I 0 W/m 0,0 km/h (0 Bft)
27.05.2013 23:10 12,4 C 9,0 C 79 % 1007,6 hPa 0,0 l/m 0 min 0 min 0,0 UV-I 0 W/m 0,0 km/h (0 Bft)
27.05.2013 23:12 12,4 C 9,0 C 79 % 1007,6 hPa 0,0 l/m 0 min 0 min 0,0 UV-I 0 W/m 0,0 km/h (0 Bft)
27.05.2013 23:14 12,3 C 9,0 C 79 % 1007,6 hPa 0,0 l/m 0 min 0 min 0,0 UV-I 0 W/m 0,0 km/h (0 Bft)
27.05.2013 23:16 12,3 C 9,0 C 79 % 1007,6 hPa 0,0 l/m 0 min 0 min 0,0 UV-I 0 W/m 0,0 km/h (0 Bft)
27.05.2013 23:18 12,3 C 9,0 C 79 % 1007,6 hPa 0,0 l/m 0 min 0 min 0,0 UV-I 0 W/m 0,0 km/h (0 Bft)
27.05.2013 23:20 12,2 C 9,0 C 79 % 1007,6 hPa 0,0 l/m 0 min 0 min 0,0 UV-I 0 W/m 0,0 km/h (0 Bft)
27.05.2013 23:22 12,2 C 9,0 C 79 % 1007,7 hPa 0,0 l/m 0 min 0 min 0,0 UV-I 0 W/m 0,0 km/h (0 Bft)
27.05.2013 23:24 12,1 C 9,0 C 79 % 1007,6 hPa 0,0 l/m 0 min 0 min 0,0 UV-I 0 W/m 0,0 km/h (0 Bft)
27.05.2013 23:26 12,1 C 9,0 C 80 % 1007,7 hPa 0,0 l/m 0 min 0 min 0,0 UV-I 0 W/m 0,0 km/h (0 Bft)
27.05.2013 23:28 11,9 C 9,0 C 80 % 1007,7 hPa 0,0 l/m 0 min 0 min 0,0 UV-I 0 W/m 0,0 km/h (0 Bft)
27.05.2013 23:30 11,9 C 9,0 C 80 % 1007,7 hPa 0,0 l/m 0 min 0 min 0,0 UV-I 0 W/m 0,0 km/h (0 Bft)
27.05.2013 23:32 11,9 C 9,0 C 80 % 1007,7 hPa 0,0 l/m 0 min 0 min 0,0 UV-I 0 W/m 0,0 km/h (0 Bft)
27.05.2013 23:34 11,8 C 9,0 C 81 % 1007,7 hPa 0,0 l/m 0 min 0 min 0,0 UV-I 0 W/m 0,0 km/h (0 Bft)
27.05.2013 23:36 11,8 C 9,0 C 81 % 1007,7 hPa 0,0 l/m 0 min 0 min 0,0 UV-I 0 W/m 0,0 km/h (0 Bft)
27.05.2013 23:38 11,7 C 9,0 C 81 % 1007,7 hPa 0,0 l/m 0 min 0 min 0,0 UV-I 0 W/m 0,0 km/h (0 Bft)
27.05.2013 23:40 11,7 C 8,4 C 81 % 1007,6 hPa 0,0 l/m 0 min 0 min 0,0 UV-I 0 W/m 0,0 km/h (0 Bft)
27.05.2013 23:42 11,6 C 8,4 C 82 % 1007,7 hPa 0,0 l/m 0 min 0 min 0,0 UV-I 0 W/m 0,0 km/h (0 Bft)
27.05.2013 23:44 11,6 C 8,4 C 82 % 1007,7 hPa 0,0 l/m 0 min 0 min 0,0 UV-I 0 W/m 0,0 km/h (0 Bft)
27.05.2013 23:46 11,5 C 8,4 C 82 % 1007,7 hPa 0,0 l/m 0 min 0 min 0,0 UV-I 0 W/m 0,0 km/h (0 Bft)
27.05.2013 23:48 11,5 C 8,4 C 82 % 1007,7 hPa 0,0 l/m 0 min 0 min 0,0 UV-I 0 W/m 0,0 km/h (0 Bft)
27.05.2013 23:50 11,4 C 8,4 C 82 % 1007,7 hPa 0,0 l/m 0 min 0 min 0,0 UV-I 0 W/m 0,0 km/h (0 Bft)
27.05.2013 23:52 11,4 C 8,4 C 82 % 1007,7 hPa 0,0 l/m 0 min 0 min 0,0 UV-I 0 W/m 0,0 km/h (0 Bft)
27.05.2013 23:54 11,4 C 8,4 C 82 % 1007,6 hPa 0,0 l/m 0 min 0 min 0,0 UV-I 0 W/m 0,0 km/h (0 Bft)
27.05.2013 23:56 11,3 C 8,4 C 82 % 1007,6 hPa 0,0 l/m 0 min 0 min 0,0 UV-I 0 W/m 0,0 km/h (0 Bft)
27.05.2013 23:58 11,3 C 8,4 C 82 % 1007,7 hPa 0,0 l/m 0 min 0 min 0,0 UV-I 0 W/m 0,0 km/h (0 Bft)
_ Min-Zeit 05:00 03:36 16:02 23:04 - - - - - 00:02
Minimum _ 7,7 C 6,8 C 44 % 1007,6 hPa - - - - - 0,0 km/h (0 Bft)
_ Max-Zeit 16:00 13:28 03:16 00:00 00:00 05:48 00:00 12:44 12:50 00:34
Maximum _ 20,6 C 27,9 C 91 % 1010,6 hPa 0,0 l/m 2 min 0 min 4,8 UV-I 1090 W/m 28,3 km/h
W-SW (4 Bft)
Durchschnitt _ 13,9 C 14,3 C 70 % 1009,4 hPa #0,0 l/m #8:36 h #0 min. 2,5 UV-I 420 W/m 6,8 km/h (2 Bft)
© 2013 W. Hausmann